Time,TemperatureF,DewpointF,PressureIn,WindDirection,WindDirectionDegrees,WindSpeedMPH,WindSpeedGustMPH,Humidity,HourlyPrecipIn,Conditions,Clouds,dailyrainin,SoftwareType,DateUTC
2013-04-25 00:01:00,63.9,56.9,29.95,SW,221,0.0,7.0,78,0.00,,---,0.00,VWS V13.01,2013-04-25 04:01:00,
2013-04-25 00:06:00,63.8,56.8,29.96,SSW,209,1.0,6.0,78,0.00,,---,0.00,VWS V13.01,2013-04-25 04:06:00,
2013-04-25 00:11:00,63.7,56.7,29.95,SSW,209,0.0,6.0,78,0.00,,---,0.00,VWS V13.01,2013-04-25 04:11:00,
2013-04-25 00:16:00,63.7,57.1,29.96,SSW,210,0.0,9.0,79,0.00,,---,0.00,VWS V13.01,2013-04-25 04:16:00,
2013-04-25 00:21:00,63.6,57.0,29.96,SSW,211,0.0,9.0,79,0.00,,---,0.00,VWS V13.01,2013-04-25 04:21:00,
2013-04-25 00:22:00,63.6,57.0,29.96,SSW,211,1.0,9.0,79,0.00,,---,0.00,VWS V13.01,2013-04-25 04:22:00,
2013-04-25 00:26:00,63.6,57.0,29.96,SSW,211,0.0,9.0,79,0.00,,---,0.00,VWS V13.01,2013-04-25 04:26:00,
2013-04-25 00:27:00,63.5,56.9,29.96,SSW,211,0.0,9.0,79,0.00,,---,0.00,VWS V13.01,2013-04-25 04:27:00,
2013-04-25 00:31:00,63.5,56.9,29.96,SSW,213,0.0,9.0,79,0.00,,---,0.00,VWS V13.01,2013-04-25 04:31:00,
2013-04-25 00:32:00,63.5,56.9,29.96,SSW,213,0.0,1.0,79,0.00,,---,0.00,VWS V13.01,2013-04-25 04:32:00,
2013-04-25 00:36:00,63.4,56.8,29.96,SW,214,0.0,3.0,79,0.00,,---,0.00,VWS V13.01,2013-04-25 04:36:00,
2013-04-25 00:37:00,63.4,56.8,29.96,SW,214,0.0,3.0,79,0.00,,---,0.00,VWS V13.01,2013-04-25 04:37:00,
2013-04-25 00:41:00,63.3,56.7,29.96,SW,214,0.0,3.0,79,0.00,,---,0.00,VWS V13.01,2013-04-25 04:41:00,
2013-04-25 00:42:00,63.3,56.7,29.96,SW,215,1.0,4.0,79,0.00,,---,0.00,VWS V13.01,2013-04-25 04:42:00,
2013-04-25 00:46:00,63.3,57.0,29.97,SW,221,2.0,5.0,80,0.00,,---,0.00,VWS V13.01,2013-04-25 04:46:00,
2013-04-25 00:47:00,63.3,57.0,29.97,SW,221,0.0,5.0,80,0.00,,---,0.00,VWS V13.01,2013-04-25 04:47:00,
2013-04-25 00:51:00,63.2,57.3,29.97,WSW,238,0.0,5.0,81,0.00,,---,0.00,VWS V13.01,2013-04-25 04:51:00,
2013-04-25 00:52:00,63.2,57.3,29.97,WSW,238,0.0,5.0,81,0.00,,---,0.00,VWS V13.01,2013-04-25 04:52:00,
2013-04-25 00:56:00,63.2,57.3,29.97,SW,215,0.0,7.0,81,0.00,,---,0.00,VWS V13.01,2013-04-25 04:56:00,
2013-04-25 00:57:00,63.2,57.3,29.97,SW,215,0.0,7.0,81,0.00,,---,0.00,VWS V13.01,2013-04-25 04:57:00,
2013-04-25 00:58:00,63.2,57.3,29.97,SW,215,0.0,7.0,81,0.00,,---,0.00,VWS V13.01,2013-04-25 04:58:00,
2013-04-25 01:01:00,63.3,57.4,29.97,West,268,0.0,0.0,81,0.00,,---,0.00,VWS V13.01,2013-04-25 05:01:00,
2013-04-25 01:02:00,63.2,57.3,29.97,West,268,0.0,0.0,81,0.00,,---,0.00,VWS V13.01,2013-04-25 05:02:00,
2013-04-25 01:03:00,63.3,57.4,29.97,WSW,244,4.0,5.0,81,0.00,,---,0.00,VWS V13.01,2013-04-25 05:03:00,
2013-04-25 01:06:00,63.3,57.4,29.97,WSW,244,0.0,5.0,81,0.00,,---,0.00,VWS V13.01,2013-04-25 05:06:00,
2013-04-25 01:07:00,63.3,57.4,29.97,WSW,244,0.0,5.0,81,0.00,,---,0.00,VWS V13.01,2013-04-25 05:07:00,
2013-04-25 01:08:00,63.3,57.7,29.97,WSW,244,0.0,5.0,82,0.00,,---,0.00,VWS V13.01,2013-04-25 05:08:00,
2013-04-25 01:12:00,63.3,57.4,29.97,WSW,245,0.0,5.0,81,0.00,,---,0.00,VWS V13.01,2013-04-25 05:12:00,
2013-04-25 01:13:00,63.4,57.8,29.97,WSW,246,0.0,5.0,82,0.00,,---,0.00,VWS V13.01,2013-04-25 05:13:00,
2013-04-25 01:17:00,63.4,57.8,29.98,West,275,0.0,11.0,82,0.00,,---,0.00,VWS V13.01,2013-04-25 05:17:00,
2013-04-25 01:18:00,63.4,57.8,29.98,West,275,0.0,11.0,82,0.00,,---,0.00,VWS V13.01,2013-04-25 05:18:00,
2013-04-25 01:22:00,63.4,57.8,29.98,WNW,302,0.0,11.0,82,0.00,,---,0.00,VWS V13.01,2013-04-25 05:22:00,
2013-04-25 01:23:00,63.4,57.8,29.98,WNW,302,0.0,11.0,82,0.00,,---,0.00,VWS V13.01,2013-04-25 05:23:00,
2013-04-25 01:27:00,63.5,57.9,29.98,WNW,300,0.0,11.0,82,0.00,,---,0.00,VWS V13.01,2013-04-25 05:27:00,
2013-04-25 01:28:00,63.5,57.9,29.98,WNW,300,1.0,11.0,82,0.00,,---,0.00,VWS V13.01,2013-04-25 05:28:00,
2013-04-25 01:32:00,63.5,57.9,29.98,WNW,295,0.0,1.0,82,0.00,,---,0.00,VWS V13.01,2013-04-25 05:32:00,
2013-04-25 01:33:00,63.5,57.9,29.98,WNW,298,0.0,4.0,82,0.00,,---,0.00,VWS V13.01,2013-04-25 05:33:00,
2013-04-25 01:34:00,63.5,57.9,29.98,WNW,298,0.0,4.0,82,0.00,,---,0.00,VWS V13.01,2013-04-25 05:34:00,
2013-04-25 01:37:00,63.6,58.0,29.99,NW,308,4.0,7.0,82,0.00,,---,0.00,VWS V13.01,2013-04-25 05:37:00,
2013-04-25 01:38:00,63.7,58.1,29.98,NNW,327,13.0,15.0,82,0.00,,---,0.00,VWS V13.01,2013-04-25 05:38:00,
2013-04-25 01:39:00,63.7,57.8,29.98,NW,310,5.0,15.0,81,0.00,,---,0.00,VWS V13.01,2013-04-25 05:39:00,
2013-04-25 01:42:00,63.7,56.7,29.99,North,351,10.0,17.0,78,0.00,,---,0.00,VWS V13.01,2013-04-25 05:42:00,
2013-04-25 01:43:00,63.7,56.4,29.99,NNW,333,10.0,17.0,77,0.00,,---,0.00,VWS V13.01,2013-04-25 05:43:00,
2013-04-25 01:44:00,63.7,56.4,29.99,NW,321,4.0,17.0,77,0.00,,---,0.00,VWS V13.01,2013-04-25 05:44:00,
2013-04-25 01:47:00,63.8,56.1,29.99,NW,311,10.0,17.0,76,0.00,,---,0.00,VWS V13.01,2013-04-25 05:47:00,
2013-04-25 01:48:00,63.8,56.1,29.99,NNW,336,15.0,17.0,76,0.00,,---,0.00,VWS V13.01,2013-04-25 05:48:00,
2013-04-25 01:49:00,63.8,56.1,29.99,North,355,4.0,17.0,76,0.00,,---,0.00,VWS V13.01,2013-04-25 05:49:00,
2013-04-25 01:53:00,63.8,56.1,29.99,NNW,338,8.0,17.0,76,0.00,,---,0.00,VWS V13.01,2013-04-25 05:53:00,
2013-04-25 01:54:00,63.8,55.7,29.99,WNW,292,3.0,17.0,75,0.00,,---,0.00,VWS V13.01,2013-04-25 05:54:00,
2013-04-25 01:58:00,63.8,55.7,29.99,WNW,286,4.0,17.0,75,0.00,,---,0.00,VWS V13.01,2013-04-25 05:58:00,
2013-04-25 01:59:00,63.8,55.7,29.99,North,351,3.0,17.0,75,0.00,,---,0.00,VWS V13.01,2013-04-25 05:59:00,
2013-04-25 02:00:00,63.8,55.7,29.99,WNW,302,7.0,17.0,75,0.00,,---,0.00,VWS V13.01,2013-04-25 06:00:00,
2013-04-25 02:03:00,63.7,55.6,29.99,NW,321,6.0,10.0,75,0.00,,---,0.00,VWS V13.01,2013-04-25 06:03:00,
2013-04-25 02:04:00,63.7,55.6,29.99,WNW,299,0.0,10.0,75,0.00,,---,0.00,VWS V13.01,2013-04-25 06:04:00,
2013-04-25 02:05:00,63.7,55.6,29.99,WNW,297,6.0,14.0,75,0.00,,---,0.00,VWS V13.01,2013-04-25 06:05:00,
2013-04-25 02:08:00,63.6,55.2,30.00,NW,326,0.0,14.0,74,0.00,,---,0.00,VWS V13.01,2013-04-25 06:08:00,
2013-04-25 02:09:00,63.5,55.1,30.00,NNW,348,3.0,14.0,74,0.00,,---,0.00,VWS V13.01,2013-04-25 06:09:00,
2013-04-25 02:10:00,63.5,55.1,30.00,NNW,333,5.0,14.0,74,0.00,,---,0.00,VWS V13.01,2013-04-25 06:10:00,
2013-04-25 02:13:00,63.4,54.6,30.00,NW,326,5.0,16.0,73,0.00,,---,0.00,VWS V13.01,2013-04-25 06:13:00,
2013-04-25 02:14:00,63.3,54.5,30.00,NW,318,2.0,16.0,73,0.00,,---,0.00,VWS V13.01,2013-04-25 06:14:00,
2013-04-25 02:15:00,63.3,54.5,30.00,NNW,336,5.0,16.0,73,0.00,,---,0.00,VWS V13.01,2013-04-25 06:15:00,
2013-04-25 02:18:00,63.2,54.0,30.00,NNW,337,0.0,16.0,72,0.00,,---,0.00,VWS V13.01,2013-04-25 06:18:00,
2013-04-25 02:19:00,63.1,53.9,30.00,NW,304,1.0,16.0,72,0.00,,---,0.00,VWS V13.01,2013-04-25 06:19:00,
2013-04-25 02:20:00,63.1,53.9,30.00,WNW,285,0.0,16.0,72,0.00,,---,0.00,VWS V13.01,2013-04-25 06:20:00,
2013-04-25 02:23:00,63.0,53.8,30.00,NW,321,3.0,16.0,72,0.00,,---,0.00,VWS V13.01,2013-04-25 06:23:00,
2013-04-25 02:24:00,63.0,53.8,30.00,NW,321,5.0,16.0,72,0.00,,---,0.00,VWS V13.01,2013-04-25 06:24:00,
2013-04-25 02:25:00,63.0,53.8,30.00,NW,321,7.0,16.0,72,0.00,,---,0.00,VWS V13.01,2013-04-25 06:25:00,
2013-04-25 02:28:00,62.9,53.8,30.00,NW,318,1.0,16.0,72,0.00,,---,0.00,VWS V13.01,2013-04-25 06:28:00,
2013-04-25 02:29:00,62.8,53.7,30.00,WNW,290,7.0,16.0,72,0.00,,---,0.00,VWS V13.01,2013-04-25 06:29:00,
2013-04-25 02:30:00,62.8,53.7,30.00,WNW,298,5.0,16.0,72,0.00,,---,0.00,VWS V13.01,2013-04-25 06:30:00,
2013-04-25 02:33:00,62.7,53.2,30.00,NNW,336,7.0,11.0,71,0.00,,---,0.00,VWS V13.01,2013-04-25 06:33:00,
2013-04-25 02:35:00,62.6,53.1,30.00,WNW,301,2.0,11.0,71,0.00,,---,0.00,VWS V13.01,2013-04-25 06:35:00,
2013-04-25 02:36:00,62.6,53.1,30.00,NNW,327,6.0,11.0,71,0.00,,---,0.00,VWS V13.01,2013-04-25 06:36:00,
2013-04-25 02:38:00,62.4,52.9,30.00,NNW,342,0.0,11.0,71,0.00,,---,0.00,VWS V13.01,2013-04-25 06:38:00,
2013-04-25 02:40:00,62.4,52.9,30.00,NW,319,5.0,11.0,71,0.00,,---,0.00,VWS V13.01,2013-04-25 06:40:00,
2013-04-25 02:41:00,62.4,52.9,30.00,NW,321,4.0,11.0,71,0.00,,---,0.00,VWS V13.01,2013-04-25 06:41:00,
2013-04-25 02:43:00,62.3,52.8,30.00,NW,317,4.0,11.0,71,0.00,,---,0.00,VWS V13.01,2013-04-25 06:43:00,
2013-04-25 02:45:00,62.2,52.7,30.00,NNW,338,5.0,11.0,71,0.00,,---,0.00,VWS V13.01,2013-04-25 06:45:00,
2013-04-25 02:46:00,62.2,52.7,30.00,West,281,7.0,11.0,71,0.00,,---,0.00,VWS V13.01,2013-04-25 06:46:00,
2013-04-25 02:49:00,62.1,52.6,30.00,North,360,7.0,11.0,71,0.00,,---,0.00,VWS V13.01,2013-04-25 06:49:00,
2013-04-25 02:50:00,62.0,52.5,30.00,NNW,340,3.0,11.0,71,0.00,,---,0.00,VWS V13.01,2013-04-25 06:50:00,
2013-04-25 02:51:00,62.0,52.5,30.00,NNW,342,2.0,11.0,71,0.00,,---,0.00,VWS V13.01,2013-04-25 06:51:00,
2013-04-25 02:54:00,61.8,52.3,30.00,NNE,13,0.0,11.0,71,0.00,,---,0.00,VWS V13.01,2013-04-25 06:54:00,
2013-04-25 02:55:00,61.8,52.3,30.00,NNW,343,11.0,11.0,71,0.00,,---,0.00,VWS V13.01,2013-04-25 06:55:00,
2013-04-25 02:56:00,61.8,52.3,30.00,NNW,341,7.0,11.0,71,0.00,,---,0.00,VWS V13.01,2013-04-25 06:56:00,
2013-04-25 02:59:00,61.6,52.1,30.00,NNW,331,2.0,14.0,71,0.00,,---,0.00,VWS V13.01,2013-04-25 06:59:00,
2013-04-25 03:00:00,61.5,52.0,30.00,North,11,0.0,14.0,71,0.00,,---,0.00,VWS V13.01,2013-04-25 07:00:00,
2013-04-25 03:01:00,61.4,51.9,30.00,North,11,0.0,14.0,71,0.00,,---,0.00,VWS V13.01,2013-04-25 07:01:00,
2013-04-25 03:04:00,61.2,51.7,30.00,WNW,284,0.0,13.0,71,0.00,,---,0.00,VWS V13.01,2013-04-25 07:04:00,
2013-04-25 03:05:00,61.1,51.6,30.00,NNW,346,4.0,13.0,71,0.00,,---,0.00,VWS V13.01,2013-04-25 07:05:00,
2013-04-25 03:06:00,61.1,51.6,30.00,NNW,345,11.0,13.0,71,0.00,,---,0.00,VWS V13.01,2013-04-25 07:06:00,
2013-04-25 03:09:00,60.9,51.1,30.01,NNW,330,4.0,13.0,70,0.00,,---,0.00,VWS V13.01,2013-04-25 07:09:00,
2013-04-25 03:10:00,60.9,51.5,30.00,NW,326,0.0,13.0,71,0.00,,---,0.00,VWS V13.01,2013-04-25 07:10:00,
2013-04-25 03:11:00,60.9,51.5,30.00,NW,325,5.0,13.0,71,0.00,,---,0.00,VWS V13.01,2013-04-25 07:11:00,
2013-04-25 03:14:00,60.7,50.9,30.01,NNW,333,6.0,13.0,70,0.00,,---,0.00,VWS V13.01,2013-04-25 07:14:00,
2013-04-25 03:16:00,60.7,50.9,30.01,NW,323,4.0,13.0,70,0.00,,---,0.00,VWS V13.01,2013-04-25 07:16:00,
2013-04-25 03:19:00,60.5,50.7,30.01,NW,325,4.0,13.0,70,0.00,,---,0.00,VWS V13.01,2013-04-25 07:19:00,
2013-04-25 03:21:00,60.4,51.0,30.01,NNW,331,0.0,13.0,71,0.00,,---,0.00,VWS V13.01,2013-04-25 07:21:00,
2013-04-25 03:22:00,60.4,51.0,30.01,NNW,331,0.0,13.0,71,0.00,,---,0.00,VWS V13.01,2013-04-25 07:22:00,
2013-04-25 03:24:00,60.3,50.9,30.02,NNW,330,0.0,13.0,71,0.00,,---,0.00,VWS V13.01,2013-04-25 07:24:00,
2013-04-25 03:26:00,60.3,51.2,30.02,North,360,2.0,13.0,72,0.00,,---,0.00,VWS V13.01,2013-04-25 07:26:00,
2013-04-25 03:27:00,60.2,51.2,30.02,NNW,328,5.0,13.0,72,0.00,,---,0.00,VWS V13.01,2013-04-25 07:27:00,
2013-04-25 03:29:00,60.2,51.2,30.02,NNE,26,1.0,13.0,72,0.00,,---,0.00,VWS V13.01,2013-04-25 07:29:00,
2013-04-25 03:31:00,60.1,51.1,30.02,NNE,25,0.0,0.0,72,0.00,,---,0.00,VWS V13.01,2013-04-25 07:31:00,
2013-04-25 03:32:00,60.1,51.1,30.02,NNE,25,0.0,0.0,72,0.00,,---,0.00,VWS V13.01,2013-04-25 07:32:00,
2013-04-25 03:34:00,60.0,51.0,30.03,North,349,4.0,6.0,72,0.00,,---,0.00,VWS V13.01,2013-04-25 07:34:00,
2013-04-25 03:36:00,59.9,50.9,30.03,NNW,344,7.0,7.0,72,0.00,,---,0.00,VWS V13.01,2013-04-25 07:36:00,
2013-04-25 03:37:00,59.9,50.9,30.03,NNW,338,3.0,7.0,72,0.00,,---,0.00,VWS V13.01,2013-04-25 07:37:00,
2013-04-25 03:39:00,59.8,51.1,30.03,NNW,336,2.0,7.0,73,0.00,,---,0.00,VWS V13.01,2013-04-25 07:39:00,
2013-04-25 03:41:00,59.6,50.6,30.03,North,355,1.0,11.0,72,0.00,,---,0.00,VWS V13.01,2013-04-25 07:41:00,
2013-04-25 03:42:00,59.6,50.6,30.03,NNW,341,6.0,11.0,72,0.00,,---,0.00,VWS V13.01,2013-04-25 07:42:00,
2013-04-25 03:44:00,59.4,50.4,30.03,North,355,4.0,11.0,72,0.00,,---,0.00,VWS V13.01,2013-04-25 07:44:00,
2013-04-25 03:46:00,59.3,49.9,30.03,NNW,340,0.0,11.0,71,0.00,,---,0.00,VWS V13.01,2013-04-25 07:46:00,
2013-04-25 03:47:00,59.3,50.3,30.03,NNW,340,1.0,11.0,72,0.00,,---,0.00,VWS V13.01,2013-04-25 07:47:00,
2013-04-25 03:48:00,59.2,50.2,30.03,NNW,340,0.0,11.0,72,0.00,,---,0.00,VWS V13.01,2013-04-25 07:48:00,
2013-04-25 03:49:00,59.1,50.1,30.03,NNW,340,2.0,11.0,72,0.00,,---,0.00,VWS V13.01,2013-04-25 07:49:00,
2013-04-25 03:51:00,59.0,49.6,30.03,NNW,340,0.0,11.0,71,0.00,,---,0.00,VWS V13.01,2013-04-25 07:51:00,
2013-04-25 03:52:00,59.0,49.6,30.03,NNW,342,3.0,11.0,71,0.00,,---,0.00,VWS V13.01,2013-04-25 07:52:00,
2013-04-25 03:53:00,59.0,49.6,30.03,NNW,342,0.0,11.0,71,0.00,,---,0.00,VWS V13.01,2013-04-25 07:53:00,
2013-04-25 03:54:00,59.0,49.6,30.03,North,355,0.0,11.0,71,0.00,,---,0.00,VWS V13.01,2013-04-25 07:54:00,
2013-04-25 03:57:00,59.0,49.6,30.03,North,355,6.0,11.0,71,0.00,,---,0.00,VWS V13.01,2013-04-25 07:57:00,
2013-04-25 03:58:00,59.0,49.6,30.04,North,355,3.0,11.0,71,0.00,,---,0.00,VWS V13.01,2013-04-25 07:58:00,
2013-04-25 03:59:00,58.9,49.5,30.03,NNW,346,3.0,11.0,71,0.00,,---,0.00,VWS V13.01,2013-04-25 07:59:00,
2013-04-25 04:02:00,58.6,49.2,30.03,North,355,7.0,9.0,71,0.00,,---,0.00,VWS V13.01,2013-04-25 08:02:00,
2013-04-25 04:03:00,58.5,48.8,30.04,NE,36,2.0,12.0,70,0.00,,---,0.00,VWS V13.01,2013-04-25 08:03:00,
2013-04-25 04:04:00,58.4,48.7,30.04,North,355,5.0,12.0,70,0.00,,---,0.00,VWS V13.01,2013-04-25 08:04:00,
2013-04-25 04:07:00,58.2,48.5,30.04,ENE,74,0.0,12.0,70,0.00,,---,0.00,VWS V13.01,2013-04-25 08:07:00,
2013-04-25 04:08:00,58.0,48.3,30.05,NE,47,5.0,12.0,70,0.00,,---,0.00,VWS V13.01,2013-04-25 08:08:00,
2013-04-25 04:10:00,57.9,48.2,30.05,North,349,0.0,12.0,70,0.00,,---,0.00,VWS V13.01,2013-04-25 08:10:00,
2013-04-25 04:12:00,57.7,48.0,30.05,NNW,333,1.0,12.0,70,0.00,,---,0.00,VWS V13.01,2013-04-25 08:12:00,
2013-04-25 04:13:00,57.7,48.0,30.05,NW,322,2.0,12.0,70,0.00,,---,0.00,VWS V13.01,2013-04-25 08:13:00,
2013-04-25 04:15:00,57.6,47.9,30.05,North,11,7.0,12.0,70,0.00,,---,0.00,VWS V13.01,2013-04-25 08:15:00,
2013-04-25 04:17:00,57.4,47.7,30.06,NNW,340,1.0,12.0,70,0.00,,---,0.00,VWS V13.01,2013-04-25 08:17:00,
2013-04-25 04:18:00,57.4,47.7,30.05,NNW,341,3.0,12.0,70,0.00,,---,0.00,VWS V13.01,2013-04-25 08:18:00,
2013-04-25 04:19:00,57.3,47.6,30.05,NNW,333,0.0,12.0,70,0.00,,---,0.00,VWS V13.01,2013-04-25 08:19:00,
2013-04-25 04:20:00,57.3,47.6,30.05,NE,48,9.0,12.0,70,0.00,,---,0.00,VWS V13.01,2013-04-25 08:20:00,
2013-04-25 04:22:00,57.1,47.4,30.06,NNW,342,7.0,12.0,70,0.00,,---,0.00,VWS V13.01,2013-04-25 08:22:00,
2013-04-25 04:23:00,57.1,47.4,30.06,North,351,0.0,12.0,70,0.00,,---,0.00,VWS V13.01,2013-04-25 08:23:00,
2013-04-25 04:24:00,57.0,47.3,30.06,NNW,336,6.0,12.0,70,0.00,,---,0.00,VWS V13.01,2013-04-25 08:24:00,
2013-04-25 04:25:00,57.0,47.3,30.06,NNW,341,0.0,12.0,70,0.00,,---,0.00,VWS V13.01,2013-04-25 08:25:00,
2013-04-25 04:27:00,56.9,47.2,30.06,NNW,346,7.0,12.0,70,0.00,,---,0.00,VWS V13.01,2013-04-25 08:27:00,
2013-04-25 04:28:00,56.9,47.2,30.06,NNW,344,1.0,12.0,70,0.00,,---,0.00,VWS V13.01,2013-04-25 08:28:00,
2013-04-25 04:29:00,56.8,47.1,30.06,ENE,67,3.0,12.0,70,0.00,,---,0.00,VWS V13.01,2013-04-25 08:29:00,
2013-04-25 04:30:00,56.7,47.0,30.06,NE,50,1.0,12.0,70,0.00,,---,0.00,VWS V13.01,2013-04-25 08:30:00,
2013-04-25 04:32:00,56.6,46.9,30.06,NNE,33,0.0,3.0,70,0.00,,---,0.00,VWS V13.01,2013-04-25 08:32:00,
2013-04-25 04:33:00,56.6,46.9,30.06,North,355,0.0,5.0,70,0.00,,---,0.00,VWS V13.01,2013-04-25 08:33:00,
2013-04-25 04:34:00,56.6,46.9,30.06,ENE,71,3.0,6.0,70,0.00,,---,0.00,VWS V13.01,2013-04-25 08:34:00,
2013-04-25 04:36:00,56.5,46.8,30.06,NNW,329,5.0,11.0,70,0.00,,---,0.00,VWS V13.01,2013-04-25 08:36:00,
2013-04-25 04:37:00,56.4,46.8,30.06,NNW,346,0.0,11.0,70,0.00,,---,0.00,VWS V13.01,2013-04-25 08:37:00,
2013-04-25 04:38:00,56.4,46.8,30.07,NNW,348,2.0,11.0,70,0.00,,---,0.00,VWS V13.01,2013-04-25 08:38:00,
2013-04-25 04:40:00,56.4,46.8,30.07,North,360,0.0,11.0,70,0.00,,---,0.00,VWS V13.01,2013-04-25 08:40:00,
2013-04-25 04:41:00,56.3,46.7,30.07,North,11,2.0,11.0,70,0.00,,---,0.00,VWS V13.01,2013-04-25 08:41:00,
2013-04-25 04:42:00,56.3,47.0,30.07,North,10,0.0,11.0,71,0.00,,---,0.00,VWS V13.01,2013-04-25 08:42:00,
2013-04-25 04:43:00,56.3,47.0,30.07,NW,315,7.0,11.0,71,0.00,,---,0.00,VWS V13.01,2013-04-25 08:43:00,
2013-04-25 04:44:00,56.3,47.0,30.07,NW,318,5.0,11.0,71,0.00,,---,0.00,VWS V13.01,2013-04-25 08:44:00,
2013-04-25 04:45:00,56.3,47.0,30.07,NNE,21,3.0,11.0,71,0.00,,---,0.00,VWS V13.01,2013-04-25 08:45:00,
2013-04-25 04:46:00,56.2,46.9,30.07,NNE,15,1.0,11.0,71,0.00,,---,0.00,VWS V13.01,2013-04-25 08:46:00,
2013-04-25 04:47:00,56.2,46.6,30.07,North,360,4.0,11.0,70,0.00,,---,0.00,VWS V13.01,2013-04-25 08:47:00,
2013-04-25 04:49:00,56.2,46.2,30.07,NW,318,16.0,16.0,69,0.00,,---,0.00,VWS V13.01,2013-04-25 08:49:00,
2013-04-25 04:50:00,56.1,45.7,30.07,NNE,24,5.0,16.0,68,0.00,,---,0.00,VWS V13.01,2013-04-25 08:50:00,
2013-04-25 04:51:00,56.1,45.7,30.07,NW,315,12.0,19.0,68,0.00,,---,0.00,VWS V13.01,2013-04-25 08:51:00,
2013-04-25 04:52:00,56.0,45.6,30.08,NNW,331,2.0,19.0,68,0.00,,---,0.00,VWS V13.01,2013-04-25 08:52:00,
2013-04-25 04:54:00,56.0,45.6,30.08,NNW,331,0.0,19.0,68,0.00,,---,0.00,VWS V13.01,2013-04-25 08:54:00,
2013-04-25 04:55:00,55.9,45.1,30.08,NNW,334,5.0,19.0,67,0.00,,---,0.00,VWS V13.01,2013-04-25 08:55:00,
2013-04-25 04:56:00,55.9,45.1,30.08,NNW,329,5.0,19.0,67,0.00,,---,0.00,VWS V13.01,2013-04-25 08:56:00,
2013-04-25 04:57:00,55.9,44.7,30.08,NW,313,9.0,19.0,66,0.00,,---,0.00,VWS V13.01,2013-04-25 08:57:00,
2013-04-25 04:59:00,55.9,44.7,30.08,NW,326,5.0,19.0,66,0.00,,---,0.00,VWS V13.01,2013-04-25 08:59:00,
2013-04-25 05:01:00,55.8,44.6,30.08,NNW,336,7.0,19.0,66,0.00,,---,0.00,VWS V13.01,2013-04-25 09:01:00,
2013-04-25 05:02:00,55.8,44.6,30.08,NW,317,9.0,14.0,66,0.00,,---,0.00,VWS V13.01,2013-04-25 09:02:00,
2013-04-25 05:04:00,55.7,44.1,30.08,NE,39,6.0,14.0,65,0.00,,---,0.00,VWS V13.01,2013-04-25 09:04:00,
2013-04-25 05:06:00,55.7,44.1,30.08,NNW,335,4.0,14.0,65,0.00,,---,0.00,VWS V13.01,2013-04-25 09:06:00,
2013-04-25 05:07:00,55.7,44.1,30.08,NNW,342,4.0,14.0,65,0.00,,---,0.00,VWS V13.01,2013-04-25 09:07:00,
2013-04-25 05:09:00,55.6,44.0,30.08,NNW,340,5.0,14.0,65,0.00,,---,0.00,VWS V13.01,2013-04-25 09:09:00,
2013-04-25 05:11:00,55.6,44.0,30.08,North,360,5.0,14.0,65,0.00,,---,0.00,VWS V13.01,2013-04-25 09:11:00,
2013-04-25 05:12:00,55.6,44.0,30.08,North,360,6.0,14.0,65,0.00,,---,0.00,VWS V13.01,2013-04-25 09:12:00,
2013-04-25 05:13:00,55.5,43.9,30.08,North,355,3.0,14.0,65,0.00,,---,0.00,VWS V13.01,2013-04-25 09:13:00,
2013-04-25 05:14:00,55.5,43.9,30.09,NNW,344,0.0,14.0,65,0.00,,---,0.00,VWS V13.01,2013-04-25 09:14:00,
2013-04-25 05:16:00,55.5,43.9,30.09,NNW,346,3.0,14.0,65,0.00,,---,0.00,VWS V13.01,2013-04-25 09:16:00,
2013-04-25 05:17:00,55.5,43.9,30.09,NNW,346,0.0,14.0,65,0.00,,---,0.00,VWS V13.01,2013-04-25 09:17:00,
2013-04-25 05:18:00,55.5,43.9,30.09,NNE,30,1.0,14.0,65,0.00,,---,0.00,VWS V13.01,2013-04-25 09:18:00,
2013-04-25 05:19:00,55.5,44.3,30.09,ENE,67,0.0,14.0,66,0.00,,---,0.00,VWS V13.01,2013-04-25 09:19:00,
2013-04-25 05:21:00,55.4,44.6,30.09,NW,308,0.0,14.0,67,0.00,,---,0.00,VWS V13.01,2013-04-25 09:21:00,
2013-04-25 05:22:00,55.4,44.6,30.09,NNE,25,0.0,14.0,67,0.00,,---,0.00,VWS V13.01,2013-04-25 09:22:00,
2013-04-25 05:23:00,55.4,45.0,30.09,NNE,25,0.0,14.0,68,0.00,,---,0.00,VWS V13.01,2013-04-25 09:23:00,
2013-04-25 05:24:00,55.4,45.0,30.09,NNE,33,1.0,14.0,68,0.00,,---,0.00,VWS V13.01,2013-04-25 09:24:00,
2013-04-25 05:27:00,55.3,44.9,30.09,North,355,4.0,14.0,68,0.00,,---,0.00,VWS V13.01,2013-04-25 09:27:00,
2013-04-25 05:28:00,55.3,44.9,30.09,North,5,5.0,14.0,68,0.00,,---,0.00,VWS V13.01,2013-04-25 09:28:00,
2013-04-25 05:29:00,55.2,44.8,30.09,NNW,344,3.0,14.0,68,0.00,,---,0.00,VWS V13.01,2013-04-25 09:29:00,
2013-04-25 05:30:00,55.2,44.8,30.09,NNW,344,0.0,14.0,68,0.00,,---,0.00,VWS V13.01,2013-04-25 09:30:00,
2013-04-25 05:32:00,55.1,44.7,30.09,NNW,331,3.0,7.0,68,0.00,,---,0.00,VWS V13.01,2013-04-25 09:32:00,
2013-04-25 05:33:00,55.1,44.7,30.09,NNE,22,0.0,7.0,68,0.00,,---,0.00,VWS V13.01,2013-04-25 09:33:00,
2013-04-25 05:35:00,55.0,44.7,30.09,NNE,33,6.0,11.0,68,0.00,,---,0.00,VWS V13.01,2013-04-25 09:35:00,
2013-04-25 05:37:00,55.0,45.0,30.09,North,360,10.0,11.0,69,0.00,,---,0.00,VWS V13.01,2013-04-25 09:37:00,
2013-04-25 05:38:00,54.9,44.5,30.10,North,355,4.0,12.0,68,0.00,,---,0.00,VWS V13.01,2013-04-25 09:38:00,
2013-04-25 05:40:00,54.8,44.5,30.10,North,355,0.0,12.0,68,0.00,,---,0.00,VWS V13.01,2013-04-25 09:40:00,
2013-04-25 05:42:00,54.6,44.3,30.10,NNW,342,0.0,16.0,68,0.00,,---,0.00,VWS V13.01,2013-04-25 09:42:00,
2013-04-25 05:43:00,54.4,44.1,30.10,NNW,329,13.0,16.0,68,0.00,,---,0.00,VWS V13.01,2013-04-25 09:43:00,
2013-04-25 05:45:00,54.3,44.0,30.10,North,355,5.0,16.0,68,0.00,,---,0.00,VWS V13.01,2013-04-25 09:45:00,
2013-04-25 05:47:00,54.1,43.8,30.10,North,355,4.0,16.0,68,0.00,,---,0.00,VWS V13.01,2013-04-25 09:47:00,
2013-04-25 05:49:00,54.1,43.8,30.11,NNW,344,2.0,16.0,68,0.00,,---,0.00,VWS V13.01,2013-04-25 09:49:00,
2013-04-25 05:50:00,53.9,43.6,30.11,NNW,347,0.0,16.0,68,0.00,,---,0.00,VWS V13.01,2013-04-25 09:50:00,
2013-04-25 05:52:00,53.8,43.5,30.11,NNW,329,4.0,16.0,68,0.00,,---,0.00,VWS V13.01,2013-04-25 09:52:00,
2013-04-25 05:53:00,53.8,43.5,30.11,NNW,329,3.0,16.0,68,0.00,,---,0.00,VWS V13.01,2013-04-25 09:53:00,
2013-04-25 05:54:00,53.6,43.3,30.11,NNW,343,3.0,16.0,68,0.00,,---,0.00,VWS V13.01,2013-04-25 09:54:00,
2013-04-25 05:55:00,53.5,43.2,30.11,North,349,3.0,16.0,68,0.00,,---,0.00,VWS V13.01,2013-04-25 09:55:00,
2013-04-25 05:57:00,53.3,42.6,30.11,NNW,338,3.0,16.0,67,0.00,,---,0.00,VWS V13.01,2013-04-25 09:57:00,
2013-04-25 05:58:00,53.3,42.6,30.11,NNW,340,0.0,16.0,67,0.00,,---,0.00,VWS V13.01,2013-04-25 09:58:00,
2013-04-25 05:59:00,53.2,42.9,30.11,NE,42,4.0,16.0,68,0.00,,---,0.00,VWS V13.01,2013-04-25 09:59:00,
2013-04-25 06:00:00,53.2,42.9,30.12,NE,42,2.0,16.0,68,0.00,,---,0.00,VWS V13.01,2013-04-25 10:00:00,
2013-04-25 06:01:00,53.1,42.8,30.12,NE,43,6.0,16.0,68,0.00,,---,0.00,VWS V13.01,2013-04-25 10:01:00,
2013-04-25 06:02:00,53.0,42.3,30.12,North,360,2.0,5.0,67,0.00,,---,0.00,VWS V13.01,2013-04-25 10:02:00,
2013-04-25 06:03:00,53.0,42.3,30.12,North,9,3.0,5.0,67,0.00,,---,0.00,VWS V13.01,2013-04-25 10:03:00,
2013-04-25 06:04:00,52.9,42.3,30.12,NE,55,0.0,5.0,67,0.00,,---,0.00,VWS V13.01,2013-04-25 10:04:00,
2013-04-25 06:05:00,52.8,42.5,30.12,NNE,20,3.0,6.0,68,0.00,,---,0.00,VWS V13.01,2013-04-25 10:05:00,
2013-04-25 06:06:00,52.8,42.2,30.12,NNE,15,9.0,9.0,67,0.00,,---,0.00,VWS V13.01,2013-04-25 10:06:00,
2013-04-25 06:08:00,52.7,41.7,30.12,North,360,0.0,12.0,66,0.00,,---,0.00,VWS V13.01,2013-04-25 10:08:00,
2013-04-25 06:09:00,52.6,41.6,30.12,NNW,348,4.0,12.0,66,0.00,,---,0.00,VWS V13.01,2013-04-25 10:09:00,
2013-04-25 06:10:00,52.5,41.5,30.12,North,351,0.0,12.0,66,0.00,,---,0.00,VWS V13.01,2013-04-25 10:10:00,
2013-04-25 06:11:00,52.5,41.9,30.12,NNW,342,5.0,12.0,67,0.00,,---,0.00,VWS V13.01,2013-04-25 10:11:00,
2013-04-25 06:13:00,52.4,41.4,30.12,NNW,348,5.0,12.0,66,0.00,,---,0.00,VWS V13.01,2013-04-25 10:13:00,
2013-04-25 06:15:00,52.3,41.3,30.12,North,350,0.0,12.0,66,0.00,,---,0.00,VWS V13.01,2013-04-25 10:15:00,
2013-04-25 06:16:00,52.2,41.2,30.12,NNW,339,0.0,12.0,66,0.00,,---,0.00,VWS V13.01,2013-04-25 10:16:00,
2013-04-25 06:18:00,52.2,41.6,30.12,WNW,299,15.0,15.0,67,0.00,,---,0.00,VWS V13.01,2013-04-25 10:18:00,
2013-04-25 06:20:00,52.0,41.0,30.12,North,11,4.0,16.0,66,0.00,,---,0.00,VWS V13.01,2013-04-25 10:20:00,
2013-04-25 06:21:00,51.9,40.9,30.13,NNW,341,0.0,16.0,66,0.00,,---,0.00,VWS V13.01,2013-04-25 10:21:00,
2013-04-25 06:23:00,51.8,40.4,30.13,NNE,28,4.0,16.0,65,0.00,,---,0.00,VWS V13.01,2013-04-25 10:23:00,
2013-04-25 06:25:00,51.7,40.7,30.13,NNW,344,9.0,16.0,66,0.00,,---,0.00,VWS V13.01,2013-04-25 10:25:00,
2013-04-25 06:26:00,51.6,40.6,30.13,North,360,2.0,16.0,66,0.00,,---,0.00,VWS V13.01,2013-04-25 10:26:00,
2013-04-25 06:28:00,51.5,40.1,30.13,NE,39,3.0,16.0,65,0.00,,---,0.00,VWS V13.01,2013-04-25 10:28:00,
2013-04-25 06:29:00,51.4,40.0,30.13,NE,38,0.0,16.0,65,0.00,,---,0.00,VWS V13.01,2013-04-25 10:29:00,
2013-04-25 06:30:00,51.4,40.0,30.13,North,5,5.0,16.0,65,0.00,,---,0.00,VWS V13.01,2013-04-25 10:30:00,
2013-04-25 06:31:00,51.3,40.3,30.13,NNW,334,5.0,7.0,66,0.00,,---,0.00,VWS V13.01,2013-04-25 10:31:00,
2013-04-25 06:33:00,51.2,40.2,30.13,North,360,7.0,9.0,66,0.00,,---,0.00,VWS V13.01,2013-04-25 10:33:00,
2013-04-25 06:34:00,51.2,40.2,30.13,NNW,337,5.0,9.0,66,0.00,,---,0.00,VWS V13.01,2013-04-25 10:34:00,
2013-04-25 06:35:00,51.1,40.2,30.14,North,10,0.0,11.0,66,0.00,,---,0.00,VWS V13.01,2013-04-25 10:35:00,
2013-04-25 06:37:00,51.0,40.1,30.14,NE,36,1.0,11.0,66,0.00,,---,0.00,VWS V13.01,2013-04-25 10:37:00,
2013-04-25 06:38:00,50.9,40.0,30.14,NNE,15,4.0,12.0,66,0.00,,---,0.00,VWS V13.01,2013-04-25 10:38:00,
2013-04-25 06:39:00,50.9,40.0,30.14,North,355,11.0,12.0,66,0.00,,---,0.00,VWS V13.01,2013-04-25 10:39:00,
2013-04-25 06:41:00,50.8,39.9,30.14,NNW,346,4.0,12.0,66,0.00,,---,0.00,VWS V13.01,2013-04-25 10:41:00,
2013-04-25 06:42:00,50.7,39.8,30.14,North,360,3.0,12.0,66,0.00,,---,0.00,VWS V13.01,2013-04-25 10:42:00,
2013-04-25 06:43:00,50.7,39.8,30.14,North,5,5.0,12.0,66,0.00,,---,0.00,VWS V13.01,2013-04-25 10:43:00,
2013-04-25 06:44:00,50.6,39.7,30.15,North,5,0.0,12.0,66,0.00,,---,0.00,VWS V13.01,2013-04-25 10:44:00,
2013-04-25 06:46:00,50.6,39.7,30.15,NNW,347,0.0,12.0,66,0.00,,---,0.00,VWS V13.01,2013-04-25 10:46:00,
2013-04-25 06:47:00,50.6,40.1,30.15,NNW,334,3.0,12.0,67,0.00,,---,0.00,VWS V13.01,2013-04-25 10:47:00,
2013-04-25 06:48:00,50.5,40.0,30.15,NNW,342,3.0,12.0,67,0.00,,---,0.00,VWS V13.01,2013-04-25 10:48:00,
2013-04-25 06:49:00,50.5,40.0,30.15,NNW,344,0.0,12.0,67,0.00,,---,0.00,VWS V13.01,2013-04-25 10:49:00,
2013-04-25 06:51:00,50.4,39.9,30.15,NW,318,2.0,12.0,67,0.00,,---,0.00,VWS V13.01,2013-04-25 10:51:00,
2013-04-25 06:52:00,50.4,39.9,30.15,NW,308,2.0,12.0,67,0.00,,---,0.00,VWS V13.01,2013-04-25 10:52:00,
2013-04-25 06:53:00,50.3,39.8,30.15,NNE,26,3.0,12.0,67,0.00,,---,0.00,VWS V13.01,2013-04-25 10:53:00,
2013-04-25 06:55:00,50.3,39.8,30.15,NNW,336,6.0,12.0,67,0.00,,---,0.00,VWS V13.01,2013-04-25 10:55:00,
2013-04-25 06:56:00,50.2,39.3,30.16,NNW,337,3.0,12.0,66,0.00,,---,0.00,VWS V13.01,2013-04-25 10:56:00,
2013-04-25 06:57:00,50.2,39.7,30.16,NW,326,6.0,12.0,67,0.00,,---,0.00,VWS V13.01,2013-04-25 10:57:00,
2013-04-25 06:58:00,50.2,39.7,30.16,North,355,5.0,12.0,67,0.00,,---,0.00,VWS V13.01,2013-04-25 10:58:00,
2013-04-25 07:00:00,50.1,39.2,30.16,West,276,3.0,12.0,66,0.00,,---,0.00,VWS V13.01,2013-04-25 11:00:00,
2013-04-25 07:01:00,50.1,39.2,30.16,North,360,0.0,2.0,66,0.00,,---,0.00,VWS V13.01,2013-04-25 11:01:00,
2013-04-25 07:03:00,50.1,39.2,30.16,North,5,0.0,10.0,66,0.00,,---,0.00,VWS V13.01,2013-04-25 11:03:00,
2013-04-25 07:05:00,50.0,38.7,30.16,NE,36,2.0,17.0,65,0.00,,---,0.00,VWS V13.01,2013-04-25 11:05:00,
2013-04-25 07:06:00,50.0,38.7,30.16,NNW,342,3.0,17.0,65,0.00,,---,0.00,VWS V13.01,2013-04-25 11:06:00,
2013-04-25 07:07:00,50.0,38.7,30.16,NNW,342,0.0,17.0,65,0.00,,---,0.00,VWS V13.01,2013-04-25 11:07:00,
2013-04-25 07:08:00,49.9,38.6,30.17,NNW,332,3.0,17.0,65,0.00,,---,0.00,VWS V13.01,2013-04-25 11:08:00,
2013-04-25 07:09:00,49.9,38.6,30.17,NNW,340,6.0,17.0,65,0.00,,---,0.00,VWS V13.01,2013-04-25 11:09:00,
2013-04-25 07:10:00,49.9,38.6,30.17,NNE,22,10.0,17.0,65,0.00,,---,0.00,VWS V13.01,2013-04-25 11:10:00,
2013-04-25 07:11:00,49.9,38.6,30.17,North,5,4.0,17.0,65,0.00,,---,0.00,VWS V13.01,2013-04-25 11:11:00,
2013-04-25 07:12:00,49.9,38.6,30.17,NE,40,0.0,17.0,65,0.00,,---,0.00,VWS V13.01,2013-04-25 11:12:00,
2013-04-25 07:13:00,49.9,38.6,30.17,NNW,334,8.0,17.0,65,0.00,,---,0.00,VWS V13.01,2013-04-25 11:13:00,
2013-04-25 07:14:00,49.8,38.5,30.17,NNW,346,0.0,17.0,65,0.00,,---,0.00,VWS V13.01,2013-04-25 11:14:00,
2013-04-25 07:15:00,49.8,38.5,30.17,NNW,341,2.0,17.0,65,0.00,,---,0.00,VWS V13.01,2013-04-25 11:15:00,
2013-04-25 07:16:00,49.8,38.5,30.17,NNW,346,4.0,17.0,65,0.00,,---,0.00,VWS V13.01,2013-04-25 11:16:00,
2013-04-25 07:17:00,49.8,38.5,30.17,WNW,293,2.0,17.0,65,0.00,,---,0.00,VWS V13.01,2013-04-25 11:17:00,
2013-04-25 07:18:00,49.7,38.4,30.17,NNW,337,6.0,17.0,65,0.00,,---,0.00,VWS V13.01,2013-04-25 11:18:00,
2013-04-25 07:19:00,49.7,38.4,30.17,NW,313,10.0,17.0,65,0.00,,---,0.00,VWS V13.01,2013-04-25 11:19:00,
2013-04-25 07:20:00,49.7,38.4,30.17,NNW,340,4.0,17.0,65,0.00,,---,0.00,VWS V13.01,2013-04-25 11:20:00,
2013-04-25 07:21:00,49.7,38.4,30.17,NNW,341,3.0,17.0,65,0.00,,---,0.00,VWS V13.01,2013-04-25 11:21:00,
2013-04-25 07:22:00,49.7,38.4,30.18,NNW,341,1.0,17.0,65,0.00,,---,0.00,VWS V13.01,2013-04-25 11:22:00,
2013-04-25 07:23:00,49.7,38.4,30.18,ENE,59,0.0,17.0,65,0.00,,---,0.00,VWS V13.01,2013-04-25 11:23:00,
2013-04-25 07:24:00,49.7,38.4,30.18,NNW,345,7.0,17.0,65,0.00,,---,0.00,VWS V13.01,2013-04-25 11:24:00,
2013-04-25 07:25:00,49.7,38.4,30.17,North,360,4.0,17.0,65,0.00,,---,0.00,VWS V13.01,2013-04-25 11:25:00,
2013-04-25 07:27:00,49.7,38.4,30.18,NE,55,4.0,17.0,65,0.00,,---,0.00,VWS V13.01,2013-04-25 11:27:00,
2013-04-25 07:28:00,49.6,38.3,30.17,NNE,24,5.0,17.0,65,0.00,,---,0.00,VWS V13.01,2013-04-25 11:28:00,
2013-04-25 07:30:00,49.6,38.3,30.18,NE,53,9.0,17.0,65,0.00,,---,0.00,VWS V13.01,2013-04-25 11:30:00,
2013-04-25 07:32:00,49.6,37.9,30.18,North,360,3.0,4.0,64,0.00,,---,0.00,VWS V13.01,2013-04-25 11:32:00,
2013-04-25 07:34:00,49.6,37.9,30.18,NW,323,2.0,15.0,64,0.00,,---,0.00,VWS V13.01,2013-04-25 11:34:00,
2013-04-25 07:35:00,49.6,37.9,30.18,NE,44,0.0,15.0,64,0.00,,---,0.00,VWS V13.01,2013-04-25 11:35:00,
2013-04-25 07:37:00,49.5,37.8,30.18,ENE,68,1.0,15.0,64,0.00,,---,0.00,VWS V13.01,2013-04-25 11:37:00,
2013-04-25 07:39:00,49.5,37.8,30.18,NNW,341,4.0,15.0,64,0.00,,---,0.00,VWS V13.01,2013-04-25 11:39:00,
2013-04-25 07:40:00,49.6,37.9,30.18,NNW,346,0.0,15.0,64,0.00,,---,0.00,VWS V13.01,2013-04-25 11:40:00,
2013-04-25 07:41:00,49.6,38.3,30.18,NNW,342,6.0,15.0,65,0.00,,---,0.00,VWS V13.01,2013-04-25 11:41:00,
2013-04-25 07:42:00,49.5,37.8,30.18,NE,38,5.0,15.0,64,0.00,,---,0.00,VWS V13.01,2013-04-25 11:42:00,
2013-04-25 07:43:00,49.6,37.5,30.18,ENE,57,0.0,15.0,63,0.00,,---,0.00,VWS V13.01,2013-04-25 11:43:00,
2013-04-25 07:44:00,49.5,37.8,30.18,NNE,20,0.0,15.0,64,0.00,,---,0.00,VWS V13.01,2013-04-25 11:44:00,
2013-04-25 07:45:00,49.6,37.9,30.18,NNW,338,7.0,15.0,64,0.00,,---,0.00,VWS V13.01,2013-04-25 11:45:00,
2013-04-25 07:46:00,49.6,37.9,30.18,North,355,4.0,15.0,64,0.00,,---,0.00,VWS V13.01,2013-04-25 11:46:00,
2013-04-25 07:47:00,49.6,37.9,30.18,North,351,8.0,15.0,64,0.00,,---,0.00,VWS V13.01,2013-04-25 11:47:00,
2013-04-25 07:48:00,49.6,37.9,30.18,North,360,6.0,15.0,64,0.00,,---,0.00,VWS V13.01,2013-04-25 11:48:00,
2013-04-25 07:49:00,49.6,37.5,30.18,NNW,336,7.0,15.0,63,0.00,,---,0.00,VWS V13.01,2013-04-25 11:49:00,
2013-04-25 07:50:00,49.6,37.5,30.18,NNW,328,0.0,15.0,63,0.00,,---,0.00,VWS V13.01,2013-04-25 11:50:00,
2013-04-25 07:51:00,49.6,37.5,30.18,NW,326,7.0,15.0,63,0.00,,---,0.00,VWS V13.01,2013-04-25 11:51:00,
2013-04-25 07:52:00,49.6,37.5,30.18,North,355,5.0,15.0,63,0.00,,---,0.00,VWS V13.01,2013-04-25 11:52:00,
2013-04-25 07:54:00,49.6,37.5,30.18,North,5,3.0,15.0,63,0.00,,---,0.00,VWS V13.01,2013-04-25 11:54:00,
2013-04-25 07:55:00,49.6,37.5,30.18,North,360,1.0,15.0,63,0.00,,---,0.00,VWS V13.01,2013-04-25 11:55:00,
2013-04-25 07:56:00,49.7,38.0,30.18,North,5,0.0,15.0,64,0.00,,---,0.00,VWS V13.01,2013-04-25 11:56:00,
2013-04-25 07:58:00,49.7,38.0,30.18,NNW,342,4.0,15.0,64,0.00,,---,0.00,VWS V13.01,2013-04-25 11:58:00,
2013-04-25 07:59:00,49.7,37.6,30.18,NNW,335,2.0,15.0,63,0.00,,---,0.00,VWS V13.01,2013-04-25 11:59:00,
2013-04-25 08:00:00,49.7,38.0,30.19,NNW,335,1.0,15.0,64,0.00,,---,0.00,VWS V13.01,2013-04-25 12:00:00,
2013-04-25 08:01:00,49.7,38.0,30.19,NNW,344,0.0,6.0,64,0.00,,---,0.00,VWS V13.01,2013-04-25 12:01:00,
2013-04-25 08:03:00,49.8,38.1,30.19,NNW,348,0.0,6.0,64,0.00,,---,0.00,VWS V13.01,2013-04-25 12:03:00,
2013-04-25 08:04:00,49.8,38.1,30.19,North,355,4.0,6.0,64,0.00,,---,0.00,VWS V13.01,2013-04-25 12:04:00,
2013-04-25 08:05:00,49.8,38.1,30.19,North,350,0.0,7.0,64,0.00,,---,0.00,VWS V13.01,2013-04-25 12:05:00,
2013-04-25 08:06:00,49.8,38.1,30.18,NNW,337,0.0,10.0,64,0.00,,---,0.00,VWS V13.01,2013-04-25 12:06:00,
2013-04-25 08:08:00,49.9,38.2,30.19,NNW,338,9.0,10.0,64,0.00,,---,0.00,VWS V13.01,2013-04-25 12:08:00,
2013-04-25 08:09:00,49.9,38.2,30.19,NNE,26,2.0,11.0,64,0.00,,---,0.00,VWS V13.01,2013-04-25 12:09:00,
2013-04-25 08:10:00,49.9,38.2,30.19,ENE,67,2.0,11.0,64,0.00,,---,0.00,VWS V13.01,2013-04-25 12:10:00,
2013-04-25 08:12:00,49.9,38.6,30.19,North,360,12.0,12.0,65,0.00,,---,0.00,VWS V13.01,2013-04-25 12:12:00,
2013-04-25 08:13:00,49.9,38.2,30.19,North,360,0.0,12.0,64,0.00,,---,0.00,VWS V13.01,2013-04-25 12:13:00,
2013-04-25 08:14:00,49.9,38.2,30.19,NE,46,0.0,12.0,64,0.00,,---,0.00,VWS V13.01,2013-04-25 12:14:00,
2013-04-25 08:15:00,49.9,38.2,30.19,NE,47,0.0,12.0,64,0.00,,---,0.00,VWS V13.01,2013-04-25 12:15:00,
2013-04-25 08:17:00,50.0,38.3,30.19,NNE,27,4.0,14.0,64,0.00,,---,0.00,VWS V13.01,2013-04-25 12:17:00,
2013-04-25 08:18:00,50.0,38.3,30.19,North,350,4.0,14.0,64,0.00,,---,0.00,VWS V13.01,2013-04-25 12:18:00,
2013-04-25 08:19:00,50.0,38.3,30.19,NNW,331,9.0,14.0,64,0.00,,---,0.00,VWS V13.01,2013-04-25 12:19:00,
2013-04-25 08:20:00,50.0,38.3,30.19,NNW,342,5.0,14.0,64,0.00,,---,0.00,VWS V13.01,2013-04-25 12:20:00,
2013-04-25 08:22:00,50.0,37.9,30.19,NNW,345,6.0,14.0,63,0.00,,---,0.00,VWS V13.01,2013-04-25 12:22:00,
2013-04-25 08:24:00,50.1,37.6,30.19,NNW,331,3.0,14.0,62,0.00,,---,0.00,VWS V13.01,2013-04-25 12:24:00,
2013-04-25 08:25:00,50.1,38.0,30.19,NNE,17,4.0,14.0,63,0.00,,---,0.00,VWS V13.01,2013-04-25 12:25:00,
2013-04-25 08:27:00,50.1,38.0,30.19,NNW,345,7.0,14.0,63,0.00,,---,0.00,VWS V13.01,2013-04-25 12:27:00,
2013-04-25 08:29:00,50.2,38.1,30.19,NNW,338,4.0,14.0,63,0.00,,---,0.00,VWS V13.01,2013-04-25 12:29:00,
2013-04-25 08:30:00,50.2,38.1,30.19,NNW,336,3.0,14.0,63,0.00,,---,0.00,VWS V13.01,2013-04-25 12:30:00,
2013-04-25 08:32:00,50.2,38.1,30.19,North,350,0.0,13.0,63,0.00,,---,0.00,VWS V13.01,2013-04-25 12:32:00,
2013-04-25 08:34:00,50.3,38.2,30.19,NE,45,2.0,13.0,63,0.00,,---,0.00,VWS V13.01,2013-04-25 12:34:00,
2013-04-25 08:35:00,50.3,38.6,30.19,NNW,333,12.0,13.0,64,0.00,,---,0.00,VWS V13.01,2013-04-25 12:35:00,
2013-04-25 08:36:00,50.4,38.3,30.19,NW,324,0.0,13.0,63,0.00,,---,0.00,VWS V13.01,2013-04-25 12:36:00,
2013-04-25 08:37:00,50.4,37.9,30.19,WNW,296,3.0,13.0,62,0.00,,---,0.00,VWS V13.01,2013-04-25 12:37:00,
2013-04-25 08:39:00,50.5,38.4,30.19,NE,37,0.0,13.0,63,0.00,,---,0.00,VWS V13.01,2013-04-25 12:39:00,
2013-04-25 08:40:00,50.5,38.8,30.19,North,355,0.0,13.0,64,0.00,,---,0.00,VWS V13.01,2013-04-25 12:40:00,
2013-04-25 08:41:00,50.5,38.4,30.19,North,355,0.0,13.0,63,0.00,,---,0.00,VWS V13.01,2013-04-25 12:41:00,
2013-04-25 08:42:00,50.6,38.5,30.19,NNE,18,1.0,13.0,63,0.00,,---,0.00,VWS V13.01,2013-04-25 12:42:00,
2013-04-25 08:44:00,50.7,39.0,30.19,NNW,346,0.0,13.0,64,0.00,,---,0.00,VWS V13.01,2013-04-25 12:44:00,
2013-04-25 08:46:00,50.8,38.3,30.19,NNW,327,2.0,13.0,62,0.00,,---,0.00,VWS V13.01,2013-04-25 12:46:00,
2013-04-25 08:47:00,50.9,38.4,30.19,NE,36,0.0,13.0,62,0.00,,---,0.00,VWS V13.01,2013-04-25 12:47:00,
2013-04-25 08:50:00,51.0,38.5,30.19,NNE,32,3.0,13.0,62,0.00,,---,0.00,VWS V13.01,2013-04-25 12:50:00,
2013-04-25 08:51:00,51.1,39.0,30.19,NNE,32,0.0,13.0,63,0.00,,---,0.00,VWS V13.01,2013-04-25 12:51:00,
2013-04-25 08:52:00,51.2,39.0,30.19,North,355,8.0,13.0,63,0.00,,---,0.00,VWS V13.01,2013-04-25 12:52:00,
2013-04-25 08:55:00,51.4,38.4,30.19,North,360,1.0,13.0,61,0.00,,---,0.00,VWS V13.01,2013-04-25 12:55:00,
2013-04-25 08:56:00,51.5,38.9,30.19,North,360,0.0,13.0,62,0.00,,---,0.00,VWS V13.01,2013-04-25 12:56:00,
2013-04-25 08:58:00,51.7,38.7,30.19,NE,50,1.0,13.0,61,0.00,,---,0.00,VWS V13.01,2013-04-25 12:58:00,
2013-04-25 09:00:00,51.8,38.8,30.19,NNW,340,6.0,13.0,61,0.00,,---,0.00,VWS V13.01,2013-04-25 13:00:00,
2013-04-25 09:01:00,51.9,38.5,30.19,NNW,342,3.0,13.0,60,0.00,,---,0.00,VWS V13.01,2013-04-25 13:01:00,
2013-04-25 09:02:00,51.9,38.5,30.19,NNW,342,0.0,1.0,60,0.00,,---,0.00,VWS V13.01,2013-04-25 13:02:00,
2013-04-25 09:03:00,52.1,38.7,30.19,NE,53,4.0,8.0,60,0.00,,---,0.00,VWS V13.01,2013-04-25 13:03:00,
2013-04-25 09:06:00,52.2,38.8,30.20,NNE,24,0.0,9.0,60,0.00,,---,0.00,VWS V13.01,2013-04-25 13:06:00,
2013-04-25 09:07:00,52.3,38.8,30.20,NE,56,3.0,9.0,60,0.00,,---,0.00,VWS V13.01,2013-04-25 13:07:00,
2013-04-25 09:08:00,52.4,38.9,30.20,NNE,15,0.0,9.0,60,0.00,,---,0.00,VWS V13.01,2013-04-25 13:08:00,
2013-04-25 09:11:00,52.7,38.8,30.19,NNE,22,9.0,16.0,59,0.00,,---,0.00,VWS V13.01,2013-04-25 13:11:00,
2013-04-25 09:12:00,52.7,38.8,30.19,NW,313,5.0,16.0,59,0.00,,---,0.00,VWS V13.01,2013-04-25 13:12:00,
2013-04-25 09:13:00,52.8,38.9,30.19,East,99,0.0,16.0,59,0.00,,---,0.00,VWS V13.01,2013-04-25 13:13:00,
2013-04-25 09:16:00,53.0,38.6,30.20,North,5,0.0,16.0,58,0.00,,---,0.00,VWS V13.01,2013-04-25 13:16:00,
2013-04-25 09:17:00,53.1,38.7,30.20,North,5,4.0,16.0,58,0.00,,---,0.00,VWS V13.01,2013-04-25 13:17:00,
2013-04-25 09:18:00,53.2,38.8,30.20,NW,317,1.0,16.0,58,0.00,,---,0.00,VWS V13.01,2013-04-25 13:18:00,
2013-04-25 09:21:00,53.3,38.9,30.20,NW,315,7.0,16.0,58,0.00,,---,0.00,VWS V13.01,2013-04-25 13:21:00,
2013-04-25 09:22:00,53.4,39.0,30.20,NW,315,9.0,16.0,58,0.00,,---,0.00,VWS V13.01,2013-04-25 13:22:00,
2013-04-25 09:23:00,53.5,39.1,30.20,NW,324,1.0,16.0,58,0.00,,---,0.00,VWS V13.01,2013-04-25 13:23:00,
2013-04-25 09:26:00,53.7,39.3,30.20,ENE,57,0.0,16.0,58,0.00,,---,0.00,VWS V13.01,2013-04-25 13:26:00,
2013-04-25 09:27:00,53.7,39.3,30.20,NNE,32,3.0,16.0,58,0.00,,---,0.00,VWS V13.01,2013-04-25 13:27:00,
2013-04-25 09:28:00,53.8,39.4,30.20,NNW,331,5.0,16.0,58,0.00,,---,0.00,VWS V13.01,2013-04-25 13:28:00,
2013-04-25 09:31:00,54.0,39.6,30.20,North,5,5.0,5.0,58,0.00,,---,0.00,VWS V13.01,2013-04-25 13:31:00,
2013-04-25 09:33:00,54.1,39.2,30.20,NNW,329,4.0,13.0,57,0.00,,---,0.00,VWS V13.01,2013-04-25 13:33:00,
2013-04-25 09:34:00,54.1,38.8,30.20,North,360,2.0,13.0,56,0.00,,---,0.00,VWS V13.01,2013-04-25 13:34:00,
2013-04-25 09:36:00,54.3,39.4,30.20,NNW,346,4.0,13.0,57,0.00,,---,0.00,VWS V13.01,2013-04-25 13:36:00,
2013-04-25 09:38:00,54.4,39.5,30.20,NNW,345,1.0,13.0,57,0.00,,---,0.00,VWS V13.01,2013-04-25 13:38:00,
2013-04-25 09:39:00,54.5,40.0,30.20,NNW,341,3.0,13.0,58,0.00,,---,0.00,VWS V13.01,2013-04-25 13:39:00,
2013-04-25 09:41:00,54.7,39.3,30.20,North,355,0.0,13.0,56,0.00,,---,0.00,VWS V13.01,2013-04-25 13:41:00,
2013-04-25 09:43:00,54.8,39.4,30.20,North,355,5.0,13.0,56,0.00,,---,0.00,VWS V13.01,2013-04-25 13:43:00,
2013-04-25 09:44:00,54.9,39.5,30.19,North,360,3.0,13.0,56,0.00,,---,0.00,VWS V13.01,2013-04-25 13:44:00,
2013-04-25 09:46:00,55.0,39.2,30.20,NW,326,9.0,13.0,55,0.00,,---,0.00,VWS V13.01,2013-04-25 13:46:00,
2013-04-25 09:48:00,55.1,39.7,30.20,NE,51,0.0,13.0,56,0.00,,---,0.00,VWS V13.01,2013-04-25 13:48:00,
2013-04-25 09:49:00,55.1,39.7,30.20,NNW,338,5.0,13.0,56,0.00,,---,0.00,VWS V13.01,2013-04-25 13:49:00,
2013-04-25 09:51:00,55.3,39.4,30.20,NNW,345,9.0,13.0,55,0.00,,---,0.00,VWS V13.01,2013-04-25 13:51:00,
2013-04-25 09:53:00,55.3,39.4,30.20,NW,326,4.0,15.0,55,0.00,,---,0.00,VWS V13.01,2013-04-25 13:53:00,
2013-04-25 09:54:00,55.3,39.9,30.20,NNW,344,6.0,15.0,56,0.00,,---,0.00,VWS V13.01,2013-04-25 13:54:00,
2013-04-25 09:56:00,55.4,40.0,30.20,North,349,4.0,15.0,56,0.00,,---,0.00,VWS V13.01,2013-04-25 13:56:00,
2013-04-25 09:57:00,55.4,40.0,30.20,NNW,346,4.0,15.0,56,0.00,,---,0.00,VWS V13.01,2013-04-25 13:57:00,
2013-04-25 09:58:00,55.5,40.1,30.20,NNW,338,0.0,15.0,56,0.00,,---,0.00,VWS V13.01,2013-04-25 13:58:00,
2013-04-25 09:59:00,55.5,39.6,30.20,NNW,340,2.0,15.0,55,0.00,,---,0.00,VWS V13.01,2013-04-25 13:59:00,
2013-04-25 10:01:00,55.6,39.7,30.20,NNW,331,10.0,10.0,55,0.00,,---,0.00,VWS V13.01,2013-04-25 14:01:00,
2013-04-25 10:02:00,55.6,39.7,30.20,North,355,8.0,12.0,55,0.00,,---,0.00,VWS V13.01,2013-04-25 14:02:00,
2013-04-25 10:04:00,55.7,39.8,30.20,North,360,1.0,12.0,55,0.00,,---,0.00,VWS V13.01,2013-04-25 14:04:00,
2013-04-25 10:06:00,55.8,39.9,30.20,NNE,28,0.0,12.0,55,0.00,,---,0.00,VWS V13.01,2013-04-25 14:06:00,
2013-04-25 10:07:00,55.8,39.9,30.20,NNE,26,2.0,12.0,55,0.00,,---,0.00,VWS V13.01,2013-04-25 14:07:00,
2013-04-25 10:09:00,56.0,40.5,30.20,North,360,1.0,12.0,56,0.00,,---,0.00,VWS V13.01,2013-04-25 14:09:00,
2013-04-25 10:11:00,56.3,39.9,30.19,NNE,25,3.0,13.0,54,0.00,,---,0.00,VWS V13.01,2013-04-25 14:11:00,
2013-04-25 10:12:00,56.3,39.4,30.20,NNW,348,3.0,13.0,53,0.00,,---,0.00,VWS V13.01,2013-04-25 14:12:00,
2013-04-25 10:14:00,56.4,40.9,30.20,ENE,57,1.0,13.0,56,0.00,,---,0.00,VWS V13.01,2013-04-25 14:14:00,
2013-04-25 10:15:00,56.5,40.5,30.20,NNE,26,4.0,13.0,55,0.00,,---,0.00,VWS V13.01,2013-04-25 14:15:00,
2013-04-25 10:16:00,56.6,39.7,30.20,ENE,69,4.0,13.0,53,0.00,,---,0.00,VWS V13.01,2013-04-25 14:16:00,
2013-04-25 10:17:00,56.6,39.7,30.20,ENE,67,2.0,13.0,53,0.00,,---,0.00,VWS V13.01,2013-04-25 14:17:00,
2013-04-25 10:19:00,56.7,40.3,30.20,NNW,331,3.0,13.0,54,0.00,,---,0.00,VWS V13.01,2013-04-25 14:19:00,
2013-04-25 10:20:00,56.8,40.3,30.20,NNW,338,5.0,13.0,54,0.00,,---,0.00,VWS V13.01,2013-04-25 14:20:00,
2013-04-25 10:22:00,56.9,40.4,30.20,North,351,7.0,13.0,54,0.00,,---,0.00,VWS V13.01,2013-04-25 14:22:00,
2013-04-25 10:24:00,57.1,40.2,30.20,NNW,330,0.0,13.0,53,0.00,,---,0.00,VWS V13.01,2013-04-25 14:24:00,
2013-04-25 10:25:00,57.2,41.2,30.20,NNW,333,2.0,13.0,55,0.00,,---,0.00,VWS V13.01,2013-04-25 14:25:00,
2013-04-25 10:27:00,57.3,41.3,30.20,NNE,23,6.0,13.0,55,0.00,,---,0.00,VWS V13.01,2013-04-25 14:27:00,
2013-04-25 10:28:00,57.3,40.3,30.20,ENE,68,6.0,13.0,53,0.00,,---,0.00,VWS V13.01,2013-04-25 14:28:00,
2013-04-25 10:29:00,57.4,40.9,30.20,NE,55,7.0,13.0,54,0.00,,---,0.00,VWS V13.01,2013-04-25 14:29:00,
2013-04-25 10:30:00,57.5,41.0,30.20,ENE,64,3.0,13.0,54,0.00,,---,0.00,VWS V13.01,2013-04-25 14:30:00,
2013-04-25 10:31:00,57.5,41.0,30.20,ENE,71,0.0,13.0,54,0.00,,---,0.00,VWS V13.01,2013-04-25 14:31:00,
2013-04-25 10:32:00,57.6,40.6,30.20,ENE,58,0.0,5.0,53,0.00,,---,0.00,VWS V13.01,2013-04-25 14:32:00,
2013-04-25 10:33:00,57.6,40.6,30.20,NE,55,0.0,5.0,53,0.00,,---,0.00,VWS V13.01,2013-04-25 14:33:00,
2013-04-25 10:34:00,57.6,40.6,30.20,NW,316,0.0,6.0,53,0.00,,---,0.00,VWS V13.01,2013-04-25 14:34:00,
2013-04-25 10:35:00,57.7,40.7,30.19,WNW,296,0.0,6.0,53,0.00,,---,0.00,VWS V13.01,2013-04-25 14:35:00,
2013-04-25 10:36:00,57.7,40.7,30.19,WNW,295,0.0,6.0,53,0.00,,---,0.00,VWS V13.01,2013-04-25 14:36:00,
2013-04-25 10:37:00,57.8,41.3,30.19,NW,309,1.0,6.0,54,0.00,,---,0.00,VWS V13.01,2013-04-25 14:37:00,
2013-04-25 10:38:00,57.8,40.8,30.19,ENE,72,3.0,6.0,53,0.00,,---,0.00,VWS V13.01,2013-04-25 14:38:00,
2013-04-25 10:40:00,57.9,40.9,30.19,ENE,65,2.0,6.0,53,0.00,,---,0.00,VWS V13.01,2013-04-25 14:40:00,
2013-04-25 10:41:00,58.0,41.0,30.19,NNE,23,4.0,7.0,53,0.00,,---,0.00,VWS V13.01,2013-04-25 14:41:00,
2013-04-25 10:42:00,58.1,40.6,30.19,NE,37,2.0,7.0,52,0.00,,---,0.00,VWS V13.01,2013-04-25 14:42:00,
2013-04-25 10:43:00,58.1,40.6,30.19,ENE,59,0.0,7.0,52,0.00,,---,0.00,VWS V13.01,2013-04-25 14:43:00,
2013-04-25 10:45:00,58.2,40.7,30.19,East,82,1.0,7.0,52,0.00,,---,0.00,VWS V13.01,2013-04-25 14:45:00,
2013-04-25 10:46:00,58.2,40.7,30.19,East,82,0.0,7.0,52,0.00,,---,0.00,VWS V13.01,2013-04-25 14:46:00,
2013-04-25 10:47:00,58.3,40.8,30.19,East,82,0.0,7.0,52,0.00,,---,0.00,VWS V13.01,2013-04-25 14:47:00,
2013-04-25 10:48:00,58.3,41.3,30.19,North,360,1.0,7.0,53,0.00,,---,0.00,VWS V13.01,2013-04-25 14:48:00,
2013-04-25 10:50:00,58.5,41.0,30.19,NE,49,2.0,7.0,52,0.00,,---,0.00,VWS V13.01,2013-04-25 14:50:00,
2013-04-25 10:51:00,58.6,41.0,30.19,NNW,344,0.0,7.0,52,0.00,,---,0.00,VWS V13.01,2013-04-25 14:51:00,
2013-04-25 10:52:00,58.7,41.6,30.19,North,360,1.0,7.0,53,0.00,,---,0.00,VWS V13.01,2013-04-25 14:52:00,
2013-04-25 10:54:00,58.8,40.7,30.19,NNW,333,0.0,10.0,51,0.00,,---,0.00,VWS V13.01,2013-04-25 14:54:00,
2013-04-25 10:55:00,58.9,41.3,30.19,NNW,344,5.0,10.0,52,0.00,,---,0.00,VWS V13.01,2013-04-25 14:55:00,
2013-04-25 10:56:00,58.9,40.8,30.19,NNW,345,0.0,10.0,51,0.00,,---,0.00,VWS V13.01,2013-04-25 14:56:00,
2013-04-25 10:57:00,59.0,41.4,30.19,NNW,345,0.0,10.0,52,0.00,,---,0.00,VWS V13.01,2013-04-25 14:57:00,
2013-04-25 10:59:00,59.0,41.4,30.19,NNW,345,0.0,10.0,52,0.00,,---,0.00,VWS V13.01,2013-04-25 14:59:00,
2013-04-25 11:00:00,59.0,41.9,30.19,NNW,339,2.0,10.0,53,0.00,,---,0.00,VWS V13.01,2013-04-25 15:00:00,
2013-04-25 11:01:00,59.0,41.4,30.19,NNW,336,0.0,1.0,52,0.00,,---,0.00,VWS V13.01,2013-04-25 15:01:00,
2013-04-25 11:02:00,59.2,41.6,30.19,North,355,5.0,13.0,52,0.00,,---,0.00,VWS V13.01,2013-04-25 15:02:00,
2013-04-25 11:04:00,59.3,40.7,30.19,NNW,336,7.0,13.0,50,0.00,,---,0.00,VWS V13.01,2013-04-25 15:04:00,
2013-04-25 11:06:00,59.3,40.7,30.19,NNW,335,7.0,13.0,50,0.00,,---,0.00,VWS V13.01,2013-04-25 15:06:00,
2013-04-25 11:07:00,59.3,40.7,30.19,North,5,1.0,13.0,50,0.00,,---,0.00,VWS V13.01,2013-04-25 15:07:00,
2013-04-25 11:09:00,59.3,40.7,30.19,ENE,66,0.0,13.0,50,0.00,,---,0.00,VWS V13.01,2013-04-25 15:09:00,
2013-04-25 11:11:00,59.4,40.8,30.19,ENE,65,0.0,13.0,50,0.00,,---,0.00,VWS V13.01,2013-04-25 15:11:00,
2013-04-25 11:12:00,59.4,40.8,30.19,ENE,63,1.0,13.0,50,0.00,,---,0.00,VWS V13.01,2013-04-25 15:12:00,
2013-04-25 11:14:00,59.6,41.5,30.19,ENE,74,4.0,13.0,51,0.00,,---,0.00,VWS V13.01,2013-04-25 15:14:00,
2013-04-25 11:16:00,59.7,40.5,30.19,ENE,74,0.0,13.0,49,0.00,,---,0.00,VWS V13.01,2013-04-25 15:16:00,
2013-04-25 11:17:00,59.8,41.1,30.19,ENE,74,1.0,13.0,50,0.00,,---,0.00,VWS V13.01,2013-04-25 15:17:00,
2013-04-25 11:18:00,59.9,40.7,30.19,ENE,62,1.0,13.0,49,0.00,,---,0.00,VWS V13.01,2013-04-25 15:18:00,
2013-04-25 11:19:00,60.0,41.3,30.19,NW,326,0.0,13.0,50,0.00,,---,0.00,VWS V13.01,2013-04-25 15:19:00,
2013-04-25 11:21:00,60.1,41.4,30.19,NW,325,0.0,13.0,50,0.00,,---,0.00,VWS V13.01,2013-04-25 15:21:00,
2013-04-25 11:22:00,60.2,41.5,30.19,NW,325,0.0,13.0,50,0.00,,---,0.00,VWS V13.01,2013-04-25 15:22:00,
2013-04-25 11:23:00,60.3,41.6,30.19,NNW,344,7.0,13.0,50,0.00,,---,0.00,VWS V13.01,2013-04-25 15:23:00,
2013-04-25 11:25:00,60.3,41.1,30.19,NNW,340,0.0,13.0,49,0.00,,---,0.00,VWS V13.01,2013-04-25 15:25:00,
2013-04-25 11:26:00,60.3,41.1,30.19,NNW,344,1.0,13.0,49,0.00,,---,0.00,VWS V13.01,2013-04-25 15:26:00,
2013-04-25 11:27:00,60.3,41.1,30.19,NNE,13,4.0,13.0,49,0.00,,---,0.00,VWS V13.01,2013-04-25 15:27:00,
2013-04-25 11:28:00,60.4,41.7,30.20,NNW,339,0.0,13.0,50,0.00,,---,0.00,VWS V13.01,2013-04-25 15:28:00,
2013-04-25 11:30:00,60.5,41.8,30.19,NNW,336,3.0,13.0,50,0.00,,---,0.00,VWS V13.01,2013-04-25 15:30:00,
2013-04-25 11:31:00,60.5,41.8,30.20,NNW,331,4.0,4.0,50,0.00,,---,0.00,VWS V13.01,2013-04-25 15:31:00,
2013-04-25 11:32:00,60.6,41.9,30.20,NNW,338,3.0,4.0,50,0.00,,---,0.00,VWS V13.01,2013-04-25 15:32:00,
2013-04-25 11:33:00,60.7,42.5,30.20,NNW,342,0.0,4.0,51,0.00,,---,0.00,VWS V13.01,2013-04-25 15:33:00,
2013-04-25 11:35:00,60.8,42.1,30.20,NNE,28,0.0,5.0,50,0.00,,---,0.00,VWS V13.01,2013-04-25 15:35:00,
2013-04-25 11:37:00,60.9,41.6,30.20,NNE,28,0.0,5.0,49,0.00,,---,0.00,VWS V13.01,2013-04-25 15:37:00,
2013-04-25 11:38:00,61.0,41.7,30.20,NNW,335,0.0,7.0,49,0.00,,---,0.00,VWS V13.01,2013-04-25 15:38:00,
2013-04-25 11:40:00,61.2,41.4,30.20,NNW,348,0.0,7.0,48,0.00,,---,0.00,VWS V13.01,2013-04-25 15:40:00,
2013-04-25 11:42:00,61.2,41.4,30.20,North,355,0.0,7.0,48,0.00,,---,0.00,VWS V13.01,2013-04-25 15:42:00,
2013-04-25 11:43:00,61.2,40.8,30.20,NW,326,6.0,7.0,47,0.00,,---,0.00,VWS V13.01,2013-04-25 15:43:00,
2013-04-25 11:44:00,61.2,40.8,30.20,WNW,294,0.0,10.0,47,0.00,,---,0.00,VWS V13.01,2013-04-25 15:44:00,
2013-04-25 11:46:00,61.0,40.7,30.20,WNW,295,0.0,10.0,47,0.00,,---,0.00,VWS V13.01,2013-04-25 15:46:00,
2013-04-25 11:47:00,60.9,40.5,30.20,NE,48,0.0,10.0,47,0.00,,---,0.00,VWS V13.01,2013-04-25 15:47:00,
2013-04-25 11:48:00,60.9,40.5,30.20,NNE,19,4.0,10.0,47,0.00,,---,0.00,VWS V13.01,2013-04-25 15:48:00,
2013-04-25 11:49:00,60.9,40.5,30.20,NNE,17,0.0,10.0,47,0.00,,---,0.00,VWS V13.01,2013-04-25 15:49:00,
2013-04-25 11:51:00,60.9,42.2,30.20,ENE,61,0.0,10.0,50,0.00,,---,0.00,VWS V13.01,2013-04-25 15:51:00,
2013-04-25 11:52:00,61.0,41.7,30.19,ENE,59,4.0,10.0,49,0.00,,---,0.00,VWS V13.01,2013-04-25 15:52:00,
2013-04-25 11:53:00,61.0,41.7,30.19,ENE,62,2.0,10.0,49,0.00,,---,0.00,VWS V13.01,2013-04-25 15:53:00,
2013-04-25 11:54:00,61.0,41.2,30.19,ENE,57,8.0,10.0,48,0.00,,---,0.00,VWS V13.01,2013-04-25 15:54:00,
2013-04-25 11:56:00,61.1,41.8,30.19,ENE,65,4.0,10.0,49,0.00,,---,0.00,VWS V13.01,2013-04-25 15:56:00,
2013-04-25 11:57:00,61.1,41.3,30.19,ENE,58,5.0,10.0,48,0.00,,---,0.00,VWS V13.01,2013-04-25 15:57:00,
2013-04-25 11:58:00,61.1,41.3,30.19,ENE,62,7.0,10.0,48,0.00,,---,0.00,VWS V13.01,2013-04-25 15:58:00,
2013-04-25 11:59:00,61.1,41.8,30.19,NE,42,6.0,10.0,49,0.00,,---,0.00,VWS V13.01,2013-04-25 15:59:00,
2013-04-25 12:01:00,61.3,41.5,30.20,ENE,69,4.0,5.0,48,0.00,,---,0.00,VWS V13.01,2013-04-25 16:01:00,
2013-04-25 12:02:00,61.4,42.6,30.20,ENE,68,2.0,5.0,50,0.00,,---,0.00,VWS V13.01,2013-04-25 16:02:00,
2013-04-25 12:03:00,61.5,42.2,30.20,ENE,61,0.0,5.0,49,0.00,,---,0.00,VWS V13.01,2013-04-25 16:03:00,
2013-04-25 12:04:00,61.6,42.8,30.20,ENE,61,5.0,6.0,50,0.00,,---,0.00,VWS V13.01,2013-04-25 16:04:00,
2013-04-25 12:06:00,61.8,41.4,30.20,ENE,61,0.0,6.0,47,0.00,,---,0.00,VWS V13.01,2013-04-25 16:06:00,
2013-04-25 12:07:00,61.9,41.5,30.20,NE,47,4.0,6.0,47,0.00,,---,0.00,VWS V13.01,2013-04-25 16:07:00,
2013-04-25 12:09:00,62.1,41.7,30.20,NE,41,0.0,6.0,47,0.00,,---,0.00,VWS V13.01,2013-04-25 16:09:00,
2013-04-25 12:12:00,62.2,42.3,30.20,ENE,59,2.0,6.0,48,0.00,,---,0.00,VWS V13.01,2013-04-25 16:12:00,
2013-04-25 12:14:00,62.4,41.9,30.20,NE,53,4.0,8.0,47,0.00,,---,0.00,VWS V13.01,2013-04-25 16:14:00,
2013-04-25 12:17:00,62.5,40.9,30.19,NNE,20,3.0,10.0,45,0.00,,---,0.00,VWS V13.01,2013-04-25 16:17:00,
2013-04-25 12:19:00,62.6,41.5,30.19,ESE,106,4.0,10.0,46,0.00,,---,0.00,VWS V13.01,2013-04-25 16:19:00,
2013-04-25 12:22:00,62.6,42.1,30.19,NNW,337,5.0,10.0,47,0.00,,---,0.00,VWS V13.01,2013-04-25 16:22:00,
2013-04-25 12:23:00,62.7,42.2,30.20,NNW,333,10.0,11.0,47,0.00,,---,0.00,VWS V13.01,2013-04-25 16:23:00,
2013-04-25 12:24:00,62.7,42.2,30.19,NNW,328,1.0,11.0,47,0.00,,---,0.00,VWS V13.01,2013-04-25 16:24:00,
2013-04-25 12:27:00,62.9,42.4,30.19,NNE,32,4.0,11.0,47,0.00,,---,0.00,VWS V13.01,2013-04-25 16:27:00,
2013-04-25 12:28:00,62.9,41.8,30.19,ENE,60,0.0,11.0,46,0.00,,---,0.00,VWS V13.01,2013-04-25 16:28:00,
2013-04-25 12:29:00,63.0,43.0,30.19,NNE,30,2.0,11.0,48,0.00,,---,0.00,VWS V13.01,2013-04-25 16:29:00,
2013-04-25 12:30:00,63.1,43.1,30.19,NNE,30,2.0,11.0,48,0.00,,---,0.00,VWS V13.01,2013-04-25 16:30:00,
2013-04-25 12:32:00,63.2,41.5,30.19,NE,38,6.0,9.0,45,0.00,,---,0.00,VWS V13.01,2013-04-25 16:32:00,
2013-04-25 12:33:00,63.2,41.5,30.20,ENE,72,1.0,9.0,45,0.00,,---,0.00,VWS V13.01,2013-04-25 16:33:00,
2013-04-25 12:35:00,63.3,42.8,30.20,NNW,347,6.0,9.0,47,0.00,,---,0.00,VWS V13.01,2013-04-25 16:35:00,
2013-04-25 12:38:00,63.4,41.7,30.20,NNW,344,1.0,9.0,45,0.00,,---,0.00,VWS V13.01,2013-04-25 16:38:00,
2013-04-25 12:40:00,63.6,41.3,30.20,NNW,327,5.0,9.0,44,0.00,,---,0.00,VWS V13.01,2013-04-25 16:40:00,
2013-04-25 12:43:00,63.7,43.1,30.20,NNW,345,0.0,9.0,47,0.00,,---,0.00,VWS V13.01,2013-04-25 16:43:00,
2013-04-25 12:45:00,63.9,42.2,30.20,NNW,345,0.0,9.0,45,0.00,,---,0.00,VWS V13.01,2013-04-25 16:45:00,
2013-04-25 12:48:00,64.0,42.8,30.20,North,355,5.0,9.0,46,0.00,,---,0.00,VWS V13.01,2013-04-25 16:48:00,
2013-04-25 12:50:00,64.3,43.7,30.19,NNE,32,1.0,9.0,47,0.00,,---,0.00,VWS V13.01,2013-04-25 16:50:00,
2013-04-25 12:51:00,64.4,43.8,30.19,NNE,32,0.0,9.0,47,0.00,,---,0.00,VWS V13.01,2013-04-25 16:51:00,
2013-04-25 12:53:00,64.7,43.5,30.19,NE,54,0.0,9.0,46,0.00,,---,0.00,VWS V13.01,2013-04-25 16:53:00,
2013-04-25 12:55:00,64.8,43.6,30.19,NE,47,0.0,9.0,46,0.00,,---,0.00,VWS V13.01,2013-04-25 16:55:00,
2013-04-25 12:56:00,64.8,43.6,30.19,NE,46,0.0,9.0,46,0.00,,---,0.00,VWS V13.01,2013-04-25 16:56:00,
2013-04-25 12:58:00,65.0,43.2,30.19,NNE,26,3.0,9.0,45,0.00,,---,0.00,VWS V13.01,2013-04-25 16:58:00,
2013-04-25 12:59:00,65.1,43.8,30.19,NE,34,5.0,9.0,46,0.00,,---,0.00,VWS V13.01,2013-04-25 16:59:00,
2013-04-25 13:01:00,65.2,42.8,30.19,North,9,5.0,9.0,44,0.00,,---,0.00,VWS V13.01,2013-04-25 17:01:00,
2013-04-25 13:03:00,65.3,44.0,30.19,NNE,19,1.0,9.0,46,0.00,,---,0.00,VWS V13.01,2013-04-25 17:03:00,
2013-04-25 13:04:00,65.3,44.0,30.19,NNW,344,2.0,9.0,46,0.00,,---,0.00,VWS V13.01,2013-04-25 17:04:00,
2013-04-25 13:06:00,65.3,42.8,30.19,NNW,346,7.0,10.0,44,0.00,,---,0.00,VWS V13.01,2013-04-25 17:06:00,
2013-04-25 13:08:00,65.4,43.5,30.19,NNW,339,1.0,10.0,45,0.00,,---,0.00,VWS V13.01,2013-04-25 17:08:00,
2013-04-25 13:09:00,65.4,42.3,30.19,NNW,339,0.0,10.0,43,0.00,,---,0.00,VWS V13.01,2013-04-25 17:09:00,
2013-04-25 13:11:00,65.5,43.0,30.19,North,355,0.0,10.0,44,0.00,,---,0.00,VWS V13.01,2013-04-25 17:11:00,
2013-04-25 13:12:00,65.5,42.4,30.19,North,350,1.0,10.0,43,0.00,,---,0.00,VWS V13.01,2013-04-25 17:12:00,
2013-04-25 13:13:00,65.6,43.1,30.19,NNW,341,0.0,10.0,44,0.00,,---,0.00,VWS V13.01,2013-04-25 17:13:00,
2013-04-25 13:15:00,65.6,42.5,30.19,NNW,341,3.0,10.0,43,0.00,,---,0.00,VWS V13.01,2013-04-25 17:15:00,
2013-04-25 13:16:00,65.7,42.0,30.19,NNW,329,2.0,10.0,42,0.00,,---,0.00,VWS V13.01,2013-04-25 17:16:00,
2013-04-25 13:17:00,65.7,42.0,30.19,NNW,329,0.0,10.0,42,0.00,,---,0.00,VWS V13.01,2013-04-25 17:17:00,
2013-04-25 13:18:00,65.8,44.5,30.19,NNW,329,5.0,10.0,46,0.00,,---,0.00,VWS V13.01,2013-04-25 17:18:00,
2013-04-25 13:20:00,65.9,42.8,30.19,North,11,0.0,10.0,43,0.00,,---,0.00,VWS V13.01,2013-04-25 17:20:00,
2013-04-25 13:21:00,65.9,42.8,30.19,NNE,33,5.0,10.0,43,0.00,,---,0.00,VWS V13.01,2013-04-25 17:21:00,
2013-04-25 13:22:00,66.0,42.9,30.19,NE,36,2.0,10.0,43,0.00,,---,0.00,VWS V13.01,2013-04-25 17:22:00,
2013-04-25 13:23:00,66.1,43.6,30.19,ENE,75,0.0,10.0,44,0.00,,---,0.00,VWS V13.01,2013-04-25 17:23:00,
2013-04-25 13:25:00,66.1,43.0,30.19,ENE,75,0.0,10.0,43,0.00,,---,0.00,VWS V13.01,2013-04-25 17:25:00,
2013-04-25 13:26:00,66.2,44.8,30.19,NE,53,0.0,10.0,46,0.00,,---,0.00,VWS V13.01,2013-04-25 17:26:00,
2013-04-25 13:27:00,66.3,44.3,30.19,NE,54,1.0,10.0,45,0.00,,---,0.00,VWS V13.01,2013-04-25 17:27:00,
2013-04-25 13:28:00,66.4,45.0,30.19,NE,54,0.0,10.0,46,0.00,,---,0.00,VWS V13.01,2013-04-25 17:28:00,
2013-04-25 13:30:00,66.5,42.7,30.19,ENE,57,0.0,10.0,42,0.00,,---,0.00,VWS V13.01,2013-04-25 17:30:00,
2013-04-25 13:31:00,66.5,42.7,30.19,ENE,60,0.0,3.0,42,0.00,,---,0.00,VWS V13.01,2013-04-25 17:31:00,
2013-04-25 13:32:00,66.5,42.1,30.19,ENE,60,4.0,4.0,41,0.00,,---,0.00,VWS V13.01,2013-04-25 17:32:00,
2013-04-25 13:33:00,66.6,43.4,30.19,NNE,23,1.0,6.0,43,0.00,,---,0.00,VWS V13.01,2013-04-25 17:33:00,
2013-04-25 13:36:00,66.7,43.5,30.19,NNW,348,0.0,7.0,43,0.00,,---,0.00,VWS V13.01,2013-04-25 17:36:00,
2013-04-25 13:37:00,66.8,43.0,30.18,North,351,4.0,7.0,42,0.00,,---,0.00,VWS V13.01,2013-04-25 17:37:00,
2013-04-25 13:39:00,66.9,41.8,30.18,NNW,341,1.0,9.0,40,0.00,,---,0.00,VWS V13.01,2013-04-25 17:39:00,
2013-04-25 13:41:00,66.9,41.2,30.19,NW,326,0.0,9.0,39,0.00,,---,0.00,VWS V13.01,2013-04-25 17:41:00,
2013-04-25 13:42:00,66.9,41.2,30.19,NNW,327,0.0,9.0,39,0.00,,---,0.00,VWS V13.01,2013-04-25 17:42:00,
2013-04-25 13:44:00,66.9,41.2,30.19,NNW,327,0.0,9.0,39,0.00,,---,0.00,VWS V13.01,2013-04-25 17:44:00,
2013-04-25 13:46:00,66.8,41.7,30.19,WNW,300,3.0,9.0,40,0.00,,---,0.00,VWS V13.01,2013-04-25 17:46:00,
2013-04-25 13:47:00,66.8,41.7,30.19,WNW,297,4.0,9.0,40,0.00,,---,0.00,VWS V13.01,2013-04-25 17:47:00,
2013-04-25 13:49:00,66.8,41.7,30.19,WNW,292,1.0,9.0,40,0.00,,---,0.00,VWS V13.01,2013-04-25 17:49:00,
2013-04-25 13:51:00,66.8,41.7,30.18,WNW,285,0.0,9.0,40,0.00,,---,0.00,VWS V13.01,2013-04-25 17:51:00,
2013-04-25 13:52:00,66.8,43.6,30.18,WNW,284,0.0,9.0,43,0.00,,---,0.00,VWS V13.01,2013-04-25 17:52:00,
2013-04-25 13:54:00,67.0,43.2,30.18,WNW,286,2.0,9.0,42,0.00,,---,0.00,VWS V13.01,2013-04-25 17:54:00,
2013-04-25 13:56:00,67.2,45.2,30.18,ENE,57,3.0,9.0,45,0.00,,---,0.00,VWS V13.01,2013-04-25 17:56:00,
2013-04-25 13:57:00,67.2,45.2,30.18,ENE,70,5.0,9.0,45,0.00,,---,0.00,VWS V13.01,2013-04-25 17:57:00,
2013-04-25 13:59:00,67.3,43.5,30.18,NE,43,1.0,9.0,42,0.00,,---,0.00,VWS V13.01,2013-04-25 17:59:00,
2013-04-25 14:01:00,67.5,43.0,30.18,ENE,78,0.0,1.0,41,0.00,,---,0.00,VWS V13.01,2013-04-25 18:01:00,
2013-04-25 14:02:00,67.5,43.0,30.18,ENE,78,0.0,1.0,41,0.00,,---,0.00,VWS V13.01,2013-04-25 18:02:00,
2013-04-25 14:04:00,67.6,44.9,30.18,ENE,62,0.0,4.0,44,0.00,,---,0.00,VWS V13.01,2013-04-25 18:04:00,
2013-04-25 14:07:00,67.9,43.4,30.18,NNW,341,4.0,6.0,41,0.00,,---,0.00,VWS V13.01,2013-04-25 18:07:00,
2013-04-25 14:08:00,68.0,42.8,30.18,NNW,341,0.0,6.0,40,0.00,,---,0.00,VWS V13.01,2013-04-25 18:08:00,
2013-04-25 14:09:00,68.0,43.5,30.18,NNW,337,0.0,6.0,41,0.00,,---,0.00,VWS V13.01,2013-04-25 18:09:00,
2013-04-25 14:12:00,68.2,43.0,30.18,NNW,338,0.0,6.0,40,0.00,,---,0.00,VWS V13.01,2013-04-25 18:12:00,
2013-04-25 14:13:00,68.2,43.6,30.18,NNW,338,0.0,6.0,41,0.00,,---,0.00,VWS V13.01,2013-04-25 18:13:00,
2013-04-25 14:14:00,68.3,43.1,30.18,NNW,338,1.0,6.0,40,0.00,,---,0.00,VWS V13.01,2013-04-25 18:14:00,
2013-04-25 14:17:00,68.4,43.8,30.18,SSE,161,0.0,6.0,41,0.00,,---,0.00,VWS V13.01,2013-04-25 18:17:00,
2013-04-25 14:18:00,68.4,43.2,30.18,SW,223,0.0,6.0,40,0.00,,---,0.00,VWS V13.01,2013-04-25 18:18:00,
2013-04-25 14:19:00,68.4,41.8,30.18,NNE,26,0.0,6.0,38,0.00,,---,0.00,VWS V13.01,2013-04-25 18:19:00,
2013-04-25 14:22:00,68.4,43.2,30.18,NE,38,0.0,6.0,40,0.00,,---,0.00,VWS V13.01,2013-04-25 18:22:00,
2013-04-25 14:23:00,68.5,42.6,30.18,NE,37,0.0,6.0,39,0.00,,---,0.00,VWS V13.01,2013-04-25 18:23:00,
2013-04-25 14:24:00,68.5,43.2,30.18,NE,42,1.0,6.0,40,0.00,,---,0.00,VWS V13.01,2013-04-25 18:24:00,
2013-04-25 14:27:00,68.6,42.7,30.18,NNE,24,0.0,6.0,39,0.00,,---,0.00,VWS V13.01,2013-04-25 18:27:00,
2013-04-25 14:28:00,68.6,42.7,30.18,NNE,15,0.0,6.0,39,0.00,,---,0.00,VWS V13.01,2013-04-25 18:28:00,
2013-04-25 14:29:00,68.8,44.2,30.18,NNE,15,0.0,6.0,41,0.00,,---,0.00,VWS V13.01,2013-04-25 18:29:00,
2013-04-25 14:32:00,69.0,43.7,30.17,SSW,207,3.0,4.0,40,0.00,,---,0.00,VWS V13.01,2013-04-25 18:32:00,
2013-04-25 14:33:00,69.0,43.0,30.17,South,190,0.0,4.0,39,0.00,,---,0.00,VWS V13.01,2013-04-25 18:33:00,
2013-04-25 14:34:00,69.1,43.1,30.17,ENE,71,0.0,4.0,39,0.00,,---,0.00,VWS V13.01,2013-04-25 18:34:00,
2013-04-25 14:37:00,69.1,42.5,30.17,ENE,59,3.0,4.0,38,0.00,,---,0.00,VWS V13.01,2013-04-25 18:37:00,
2013-04-25 14:38:00,69.2,44.5,30.17,ENE,59,0.0,4.0,41,0.00,,---,0.00,VWS V13.01,2013-04-25 18:38:00,
2013-04-25 14:39:00,69.2,43.2,30.17,ENE,59,0.0,4.0,39,0.00,,---,0.00,VWS V13.01,2013-04-25 18:39:00,
2013-04-25 14:42:00,69.3,43.3,30.17,NE,54,0.0,4.0,39,0.00,,---,0.00,VWS V13.01,2013-04-25 18:42:00,
2013-04-25 14:43:00,69.3,43.3,30.17,NNE,32,0.0,4.0,39,0.00,,---,0.00,VWS V13.01,2013-04-25 18:43:00,
2013-04-25 14:44:00,69.3,42.6,30.17,ENE,71,4.0,5.0,38,0.00,,---,0.00,VWS V13.01,2013-04-25 18:44:00,
2013-04-25 14:47:00,69.5,42.8,30.17,NNW,344,3.0,6.0,38,0.00,,---,0.00,VWS V13.01,2013-04-25 18:47:00,
2013-04-25 14:48:00,69.5,43.5,30.17,NE,55,6.0,6.0,39,0.00,,---,0.00,VWS V13.01,2013-04-25 18:48:00,
2013-04-25 14:49:00,69.5,42.8,30.17,NE,49,6.0,7.0,38,0.00,,---,0.00,VWS V13.01,2013-04-25 18:49:00,
2013-04-25 14:52:00,69.5,43.5,30.17,ENE,68,2.0,10.0,39,0.00,,---,0.00,VWS V13.01,2013-04-25 18:52:00,
2013-04-25 14:53:00,69.4,42.7,30.17,ESE,111,6.0,10.0,38,0.00,,---,0.00,VWS V13.01,2013-04-25 18:53:00,
2013-04-25 14:54:00,69.4,42.0,30.17,ENE,72,4.0,10.0,37,0.00,,---,0.00,VWS V13.01,2013-04-25 18:54:00,
2013-04-25 14:55:00,69.4,42.7,30.17,East,88,1.0,10.0,38,0.00,,---,0.00,VWS V13.01,2013-04-25 18:55:00,
2013-04-25 14:57:00,69.4,44.1,30.16,East,91,0.0,10.0,40,0.00,,---,0.00,VWS V13.01,2013-04-25 18:57:00,
2013-04-25 14:58:00,69.4,42.7,30.16,East,90,0.0,10.0,38,0.00,,---,0.00,VWS V13.01,2013-04-25 18:58:00,
2013-04-25 14:59:00,69.4,42.7,30.16,East,90,0.0,10.0,38,0.00,,---,0.00,VWS V13.01,2013-04-25 18:59:00,
2013-04-25 15:00:00,69.5,43.5,30.16,East,87,2.0,10.0,39,0.00,,---,0.00,VWS V13.01,2013-04-25 19:00:00,
2013-04-25 15:02:00,69.6,43.6,30.16,East,94,0.0,2.0,39,0.00,,---,0.00,VWS V13.01,2013-04-25 19:02:00,
2013-04-25 15:03:00,69.6,42.9,30.16,SE,139,4.0,4.0,38,0.00,,---,0.00,VWS V13.01,2013-04-25 19:03:00,
2013-04-25 15:04:00,69.7,44.3,30.16,SE,139,0.0,4.0,40,0.00,,---,0.00,VWS V13.01,2013-04-25 19:04:00,
2013-04-25 15:05:00,69.7,42.3,30.16,SE,144,0.0,4.0,37,0.00,,---,0.00,VWS V13.01,2013-04-25 19:05:00,
2013-04-25 15:07:00,69.9,42.5,30.16,SE,142,0.0,4.0,37,0.00,,---,0.00,VWS V13.01,2013-04-25 19:07:00,
2013-04-25 15:08:00,69.9,43.8,30.16,SE,142,0.0,4.0,39,0.00,,---,0.00,VWS V13.01,2013-04-25 19:08:00,
2013-04-25 15:09:00,70.0,46.5,30.16,SE,142,0.0,4.0,43,0.00,,---,0.00,VWS V13.01,2013-04-25 19:09:00,
2013-04-25 15:10:00,70.2,46.7,30.16,NNW,337,4.0,4.0,43,0.00,,---,0.00,VWS V13.01,2013-04-25 19:10:00,
2013-04-25 15:12:00,70.4,46.2,30.16,North,355,4.0,7.0,42,0.00,,---,0.00,VWS V13.01,2013-04-25 19:12:00,
2013-04-25 15:14:00,70.5,43.7,30.16,North,351,0.0,7.0,38,0.00,,---,0.00,VWS V13.01,2013-04-25 19:14:00,
2013-04-25 15:15:00,70.6,43.1,30.16,North,350,0.0,7.0,37,0.00,,---,0.00,VWS V13.01,2013-04-25 19:15:00,
2013-04-25 15:17:00,70.6,41.7,30.16,NE,56,1.0,7.0,35,0.00,,---,0.00,VWS V13.01,2013-04-25 19:17:00,
2013-04-25 15:19:00,70.6,40.1,30.16,NE,49,1.0,7.0,33,0.00,,---,0.00,VWS V13.01,2013-04-25 19:19:00,
2013-04-25 15:20:00,70.5,40.0,30.16,NE,49,2.0,7.0,33,0.00,,---,0.00,VWS V13.01,2013-04-25 19:20:00,
2013-04-25 15:23:00,70.5,41.6,30.16,ENE,59,2.0,7.0,35,0.00,,---,0.00,VWS V13.01,2013-04-25 19:23:00,
2013-04-25 15:24:00,70.5,42.3,30.16,ENE,63,0.0,7.0,36,0.00,,---,0.00,VWS V13.01,2013-04-25 19:24:00,
2013-04-25 15:25:00,70.6,43.1,30.16,ENE,63,0.0,7.0,37,0.00,,---,0.00,VWS V13.01,2013-04-25 19:25:00,
2013-04-25 15:26:00,70.6,41.7,30.16,ENE,63,0.0,7.0,35,0.00,,---,0.00,VWS V13.01,2013-04-25 19:26:00,
2013-04-25 15:28:00,70.6,44.5,30.16,NE,52,0.0,7.0,39,0.00,,---,0.00,VWS V13.01,2013-04-25 19:28:00,
2013-04-25 15:29:00,70.7,43.2,30.16,NE,52,0.0,7.0,37,0.00,,---,0.00,VWS V13.01,2013-04-25 19:29:00,
2013-04-25 15:30:00,70.7,44.5,30.16,NE,52,2.0,7.0,39,0.00,,---,0.00,VWS V13.01,2013-04-25 19:30:00,
2013-04-25 15:31:00,70.8,44.0,30.16,NNE,24,5.0,5.0,38,0.00,,---,0.00,VWS V13.01,2013-04-25 19:31:00,
2013-04-25 15:33:00,70.8,41.1,30.16,NW,322,5.0,9.0,34,0.00,,---,0.00,VWS V13.01,2013-04-25 19:33:00,
2013-04-25 15:34:00,70.8,40.3,30.16,NW,318,0.0,9.0,33,0.00,,---,0.00,VWS V13.01,2013-04-25 19:34:00,
2013-04-25 15:35:00,70.8,40.3,30.16,NW,318,0.0,9.0,33,0.00,,---,0.00,VWS V13.01,2013-04-25 19:35:00,
2013-04-25 15:36:00,70.8,41.1,30.16,NW,318,0.0,9.0,34,0.00,,---,0.00,VWS V13.01,2013-04-25 19:36:00,
2013-04-25 15:38:00,70.9,40.4,30.16,NW,318,4.0,9.0,33,0.00,,---,0.00,VWS V13.01,2013-04-25 19:38:00,
2013-04-25 15:39:00,70.9,41.2,30.16,NW,315,2.0,9.0,34,0.00,,---,0.00,VWS V13.01,2013-04-25 19:39:00,
2013-04-25 15:40:00,70.9,40.4,30.16,NW,311,0.0,9.0,33,0.00,,---,0.00,VWS V13.01,2013-04-25 19:40:00,
2013-04-25 15:42:00,70.9,39.6,30.16,WNW,288,1.0,9.0,32,0.00,,---,0.00,VWS V13.01,2013-04-25 19:42:00,
2013-04-25 15:44:00,70.9,40.4,30.16,West,276,0.0,9.0,33,0.00,,---,0.00,VWS V13.01,2013-04-25 19:44:00,
2013-04-25 15:45:00,70.9,40.4,30.16,SW,225,2.0,9.0,33,0.00,,---,0.00,VWS V13.01,2013-04-25 19:45:00,
2013-04-25 15:47:00,70.8,41.1,30.16,SW,227,0.0,9.0,34,0.00,,---,0.00,VWS V13.01,2013-04-25 19:47:00,
2013-04-25 15:49:00,70.7,40.2,30.16,SSW,206,0.0,9.0,33,0.00,,---,0.00,VWS V13.01,2013-04-25 19:49:00,
2013-04-25 15:50:00,70.7,39.4,30.16,SW,219,1.0,9.0,32,0.00,,---,0.00,VWS V13.01,2013-04-25 19:50:00,
2013-04-25 15:52:00,70.6,40.1,30.15,SSW,194,1.0,9.0,33,0.00,,---,0.00,VWS V13.01,2013-04-25 19:52:00,
2013-04-25 15:54:00,70.6,40.9,30.15,NW,309,3.0,9.0,34,0.00,,---,0.00,VWS V13.01,2013-04-25 19:54:00,
2013-04-25 15:55:00,70.6,40.9,30.15,WNW,287,2.0,9.0,34,0.00,,---,0.00,VWS V13.01,2013-04-25 19:55:00,
2013-04-25 15:56:00,70.6,40.9,30.15,WNW,287,0.0,9.0,34,0.00,,---,0.00,VWS V13.01,2013-04-25 19:56:00,
2013-04-25 15:57:00,70.6,41.7,30.15,WNW,288,1.0,9.0,35,0.00,,---,0.00,VWS V13.01,2013-04-25 19:57:00,
2013-04-25 15:59:00,70.6,40.9,30.15,WNW,288,0.0,9.0,34,0.00,,---,0.00,VWS V13.01,2013-04-25 19:59:00,
2013-04-25 16:00:00,70.6,40.1,30.15,WNW,288,0.0,9.0,33,0.00,,---,0.00,VWS V13.01,2013-04-25 20:00:00,
2013-04-25 16:01:00,70.6,40.1,30.15,WNW,288,1.0,9.0,33,0.00,,---,0.00,VWS V13.01,2013-04-25 20:01:00,
2013-04-25 16:02:00,70.6,40.1,30.15,WNW,288,0.0,0.0,33,0.00,,---,0.00,VWS V13.01,2013-04-25 20:02:00,
2013-04-25 16:04:00,70.6,40.1,30.15,WNW,288,4.0,4.0,33,0.00,,---,0.00,VWS V13.01,2013-04-25 20:04:00,
2013-04-25 16:05:00,70.6,40.1,30.15,NNE,15,0.0,5.0,33,0.00,,---,0.00,VWS V13.01,2013-04-25 20:05:00,
2013-04-25 16:06:00,70.6,40.9,30.15,North,360,0.0,5.0,34,0.00,,---,0.00,VWS V13.01,2013-04-25 20:06:00,
2013-04-25 16:08:00,70.6,40.9,30.15,NNW,336,6.0,7.0,34,0.00,,---,0.00,VWS V13.01,2013-04-25 20:08:00,
2013-04-25 16:09:00,70.5,39.2,30.15,NNW,331,5.0,8.0,32,0.00,,---,0.00,VWS V13.01,2013-04-25 20:09:00,
2013-04-25 16:10:00,70.5,39.2,30.15,North,10,3.0,9.0,32,0.00,,---,0.00,VWS V13.01,2013-04-25 20:10:00,
2013-04-25 16:11:00,70.5,38.4,30.15,North,9,0.0,9.0,31,0.00,,---,0.00,VWS V13.01,2013-04-25 20:11:00,
2013-04-25 16:13:00,70.4,39.2,30.15,North,351,0.0,9.0,32,0.00,,---,0.00,VWS V13.01,2013-04-25 20:13:00,
2013-04-25 16:14:00,70.4,39.2,30.15,North,350,0.0,9.0,32,0.00,,---,0.00,VWS V13.01,2013-04-25 20:14:00,
2013-04-25 16:15:00,70.3,39.1,30.15,NW,314,1.0,9.0,32,0.00,,---,0.00,VWS V13.01,2013-04-25 20:15:00,
2013-04-25 16:16:00,70.3,39.1,30.15,NW,315,2.0,9.0,32,0.00,,---,0.00,VWS V13.01,2013-04-25 20:16:00,
2013-04-25 16:18:00,70.2,39.8,30.15,WSW,253,3.0,9.0,33,0.00,,---,0.00,VWS V13.01,2013-04-25 20:18:00,
2013-04-25 16:19:00,70.1,39.7,30.15,West,267,0.0,9.0,33,0.00,,---,0.00,VWS V13.01,2013-04-25 20:19:00,
2013-04-25 16:20:00,70.1,39.7,30.15,WSW,250,0.0,9.0,33,0.00,,---,0.00,VWS V13.01,2013-04-25 20:20:00,
2013-04-25 16:21:00,70.1,39.7,30.15,WSW,251,0.0,9.0,33,0.00,,---,0.00,VWS V13.01,2013-04-25 20:21:00,
2013-04-25 16:23:00,70.0,40.4,30.14,WSW,254,2.0,9.0,34,0.00,,---,0.00,VWS V13.01,2013-04-25 20:23:00,
2013-04-25 16:24:00,70.0,41.1,30.14,WSW,254,0.0,9.0,35,0.00,,---,0.00,VWS V13.01,2013-04-25 20:24:00,
2013-04-25 16:25:00,69.9,40.3,30.14,WSW,254,0.0,9.0,34,0.00,,---,0.00,VWS V13.01,2013-04-25 20:25:00,
2013-04-25 16:26:00,69.9,41.0,30.14,WSW,254,0.0,9.0,35,0.00,,---,0.00,VWS V13.01,2013-04-25 20:26:00,
2013-04-25 16:27:00,69.9,41.0,30.14,WSW,254,0.0,9.0,35,0.00,,---,0.00,VWS V13.01,2013-04-25 20:27:00,
2013-04-25 16:29:00,69.8,40.9,30.15,WNW,286,2.0,9.0,35,0.00,,---,0.00,VWS V13.01,2013-04-25 20:29:00,
2013-04-25 16:31:00,69.8,40.2,30.14,WNW,283,0.0,9.0,34,0.00,,---,0.00,VWS V13.01,2013-04-25 20:31:00,
2013-04-25 16:32:00,69.8,40.9,30.14,WNW,284,0.0,1.0,35,0.00,,---,0.00,VWS V13.01,2013-04-25 20:32:00,
2013-04-25 16:34:00,69.7,40.8,30.14,NW,310,1.0,5.0,35,0.00,,---,0.00,VWS V13.01,2013-04-25 20:34:00,
2013-04-25 16:36:00,69.7,40.8,30.14,NW,319,4.0,5.0,35,0.00,,---,0.00,VWS V13.01,2013-04-25 20:36:00,
2013-04-25 16:37:00,69.7,41.6,30.14,NNW,333,2.0,5.0,36,0.00,,---,0.00,VWS V13.01,2013-04-25 20:37:00,
2013-04-25 16:38:00,69.7,41.6,30.14,ENE,61,4.0,5.0,36,0.00,,---,0.00,VWS V13.01,2013-04-25 20:38:00,
2013-04-25 16:39:00,69.7,42.3,30.14,ENE,73,0.0,5.0,37,0.00,,---,0.00,VWS V13.01,2013-04-25 20:39:00,
2013-04-25 16:40:00,69.6,41.5,30.14,ENE,71,2.0,5.0,36,0.00,,---,0.00,VWS V13.01,2013-04-25 20:40:00,
2013-04-25 16:41:00,69.6,40.8,30.14,ENE,71,0.0,5.0,35,0.00,,---,0.00,VWS V13.01,2013-04-25 20:41:00,
2013-04-25 16:42:00,69.6,40.8,30.14,ENE,71,0.0,5.0,35,0.00,,---,0.00,VWS V13.01,2013-04-25 20:42:00,
2013-04-25 16:43:00,69.5,40.7,30.14,East,82,0.0,5.0,35,0.00,,---,0.00,VWS V13.01,2013-04-25 20:43:00,
2013-04-25 16:44:00,69.5,40.7,30.14,ENE,67,0.0,5.0,35,0.00,,---,0.00,VWS V13.01,2013-04-25 20:44:00,
2013-04-25 16:45:00,69.5,39.9,30.14,ENE,67,0.0,5.0,34,0.00,,---,0.00,VWS V13.01,2013-04-25 20:45:00,
2013-04-25 16:46:00,69.5,41.4,30.14,ENE,67,0.0,5.0,36,0.00,,---,0.00,VWS V13.01,2013-04-25 20:46:00,
2013-04-25 16:47:00,69.5,40.7,30.14,ENE,67,0.0,5.0,35,0.00,,---,0.00,VWS V13.01,2013-04-25 20:47:00,
2013-04-25 16:48:00,69.5,40.7,30.14,ENE,63,1.0,5.0,35,0.00,,---,0.00,VWS V13.01,2013-04-25 20:48:00,
2013-04-25 16:49:00,69.5,40.7,30.14,WNW,285,3.0,5.0,35,0.00,,---,0.00,VWS V13.01,2013-04-25 20:49:00,
2013-04-25 16:50:00,69.4,40.6,30.14,WNW,294,1.0,5.0,35,0.00,,---,0.00,VWS V13.01,2013-04-25 20:50:00,
2013-04-25 16:51:00,69.4,40.6,30.14,NW,306,3.0,5.0,35,0.00,,---,0.00,VWS V13.01,2013-04-25 20:51:00,
2013-04-25 16:53:00,69.4,39.8,30.14,East,100,0.0,5.0,34,0.00,,---,0.00,VWS V13.01,2013-04-25 20:53:00,
2013-04-25 16:54:00,69.4,41.3,30.14,East,99,1.0,5.0,36,0.00,,---,0.00,VWS V13.01,2013-04-25 20:54:00,
2013-04-25 16:55:00,69.4,40.6,30.14,NNW,342,6.0,6.0,35,0.00,,---,0.00,VWS V13.01,2013-04-25 20:55:00,
2013-04-25 16:56:00,69.4,39.8,30.14,NNW,347,4.0,7.0,34,0.00,,---,0.00,VWS V13.01,2013-04-25 20:56:00,
2013-04-25 16:58:00,69.4,39.1,30.14,NNW,333,2.0,7.0,33,0.00,,---,0.00,VWS V13.01,2013-04-25 20:58:00,
2013-04-25 16:59:00,69.3,39.0,30.14,NNE,14,4.0,7.0,33,0.00,,---,0.00,VWS V13.01,2013-04-25 20:59:00,
2013-04-25 17:00:00,69.3,39.8,30.14,NNE,26,2.0,7.0,34,0.00,,---,0.00,VWS V13.01,2013-04-25 21:00:00,
2013-04-25 17:01:00,69.3,41.9,30.14,North,5,6.0,7.0,37,0.00,,---,0.00,VWS V13.01,2013-04-25 21:01:00,
2013-04-25 17:03:00,69.3,40.5,30.14,NNW,328,2.0,9.0,35,0.00,,---,0.00,VWS V13.01,2013-04-25 21:03:00,
2013-04-25 17:04:00,69.3,39.8,30.14,NNW,327,1.0,9.0,34,0.00,,---,0.00,VWS V13.01,2013-04-25 21:04:00,
2013-04-25 17:05:00,69.3,39.0,30.14,NNW,327,4.0,9.0,33,0.00,,---,0.00,VWS V13.01,2013-04-25 21:05:00,
2013-04-25 17:06:00,69.2,39.7,30.14,NNW,334,3.0,9.0,34,0.00,,---,0.00,VWS V13.01,2013-04-25 21:06:00,
2013-04-25 17:09:00,69.2,39.7,30.14,NNW,337,4.0,9.0,34,0.00,,---,0.00,VWS V13.01,2013-04-25 21:09:00,
2013-04-25 17:10:00,69.2,40.4,30.14,NNW,337,0.0,9.0,35,0.00,,---,0.00,VWS V13.01,2013-04-25 21:10:00,
2013-04-25 17:11:00,69.2,39.7,30.14,NNW,337,0.0,9.0,34,0.00,,---,0.00,VWS V13.01,2013-04-25 21:11:00,
2013-04-25 17:14:00,69.2,39.7,30.14,NNW,338,0.0,9.0,34,0.00,,---,0.00,VWS V13.01,2013-04-25 21:14:00,
2013-04-25 17:16:00,69.2,39.7,30.14,NNW,337,3.0,9.0,34,0.00,,---,0.00,VWS V13.01,2013-04-25 21:16:00,
2013-04-25 17:19:00,69.2,39.7,30.14,NNW,338,0.0,9.0,34,0.00,,---,0.00,VWS V13.01,2013-04-25 21:19:00,
2013-04-25 17:20:00,69.2,39.7,30.14,NNW,338,0.0,9.0,34,0.00,,---,0.00,VWS V13.01,2013-04-25 21:20:00,
2013-04-25 17:21:00,69.2,38.9,30.13,NNW,337,0.0,9.0,33,0.00,,---,0.00,VWS V13.01,2013-04-25 21:21:00,
2013-04-25 17:24:00,69.2,38.9,30.14,NNW,338,3.0,9.0,33,0.00,,---,0.00,VWS V13.01,2013-04-25 21:24:00,
2013-04-25 17:25:00,69.2,38.9,30.14,NNW,338,3.0,9.0,33,0.00,,---,0.00,VWS V13.01,2013-04-25 21:25:00,
2013-04-25 17:26:00,69.2,39.7,30.14,NNW,338,1.0,9.0,34,0.00,,---,0.00,VWS V13.01,2013-04-25 21:26:00,
2013-04-25 17:29:00,69.2,40.4,30.14,NNW,338,1.0,9.0,35,0.00,,---,0.00,VWS V13.01,2013-04-25 21:29:00,
2013-04-25 17:30:00,69.2,38.9,30.14,NNW,338,2.0,9.0,33,0.00,,---,0.00,VWS V13.01,2013-04-25 21:30:00,
2013-04-25 17:31:00,69.2,38.9,30.14,NNW,338,0.0,9.0,33,0.00,,---,0.00,VWS V13.01,2013-04-25 21:31:00,
2013-04-25 17:34:00,69.2,38.1,30.14,NNW,338,0.0,1.0,32,0.00,,---,0.00,VWS V13.01,2013-04-25 21:34:00,
2013-04-25 17:35:00,69.2,38.1,30.14,NNW,338,1.0,2.0,32,0.00,,---,0.00,VWS V13.01,2013-04-25 21:35:00,
2013-04-25 17:36:00,69.2,38.1,30.14,NNW,338,0.0,2.0,32,0.00,,---,0.00,VWS V13.01,2013-04-25 21:36:00,
2013-04-25 17:39:00,69.2,40.4,30.14,NNW,338,0.0,2.0,35,0.00,,---,0.00,VWS V13.01,2013-04-25 21:39:00,
2013-04-25 17:40:00,69.2,40.4,30.14,NNW,338,0.0,2.0,35,0.00,,---,0.00,VWS V13.01,2013-04-25 21:40:00,
2013-04-25 17:41:00,69.2,41.1,30.13,NNW,338,0.0,2.0,36,0.00,,---,0.00,VWS V13.01,2013-04-25 21:41:00,
2013-04-25 17:44:00,69.2,38.1,30.13,NNW,338,1.0,3.0,32,0.00,,---,0.00,VWS V13.01,2013-04-25 21:44:00,
2013-04-25 17:45:00,69.2,38.1,30.14,NNW,338,0.0,3.0,32,0.00,,---,0.00,VWS V13.01,2013-04-25 21:45:00,
2013-04-25 17:46:00,69.2,38.1,30.13,NNW,338,3.0,3.0,32,0.00,,---,0.00,VWS V13.01,2013-04-25 21:46:00,
2013-04-25 17:49:00,69.2,39.7,30.13,NNW,338,0.0,3.0,34,0.00,,---,0.00,VWS V13.01,2013-04-25 21:49:00,
2013-04-25 17:51:00,69.2,39.7,30.13,NNW,338,0.0,3.0,34,0.00,,---,0.00,VWS V13.01,2013-04-25 21:51:00,
2013-04-25 17:54:00,69.1,38.0,30.14,NNW,338,0.0,3.0,32,0.00,,---,0.00,VWS V13.01,2013-04-25 21:54:00,
2013-04-25 17:56:00,69.2,37.3,30.14,NNW,338,0.0,3.0,31,0.00,,---,0.00,VWS V13.01,2013-04-25 21:56:00,
2013-04-25 17:57:00,69.2,37.3,30.14,NNW,338,1.0,3.0,31,0.00,,---,0.00,VWS V13.01,2013-04-25 21:57:00,
2013-04-25 17:59:00,69.1,36.4,30.14,NNW,338,0.0,4.0,30,0.00,,---,0.00,VWS V13.01,2013-04-25 21:59:00,
2013-04-25 18:01:00,69.1,36.4,30.13,NNW,338,0.0,0.0,30,0.00,,---,0.00,VWS V13.01,2013-04-25 22:01:00,
2013-04-25 18:02:00,69.1,37.2,30.14,NNW,338,0.0,2.0,31,0.00,,---,0.00,VWS V13.01,2013-04-25 22:02:00,
2013-04-25 18:05:00,69.1,35.5,30.14,NNW,338,0.0,4.0,29,0.00,,---,0.00,VWS V13.01,2013-04-25 22:05:00,
2013-04-25 18:06:00,69.1,36.4,30.14,NNW,338,1.0,4.0,30,0.00,,---,0.00,VWS V13.01,2013-04-25 22:06:00,
2013-04-25 18:07:00,69.1,36.4,30.14,NNW,338,4.0,4.0,30,0.00,,---,0.00,VWS V13.01,2013-04-25 22:07:00,
2013-04-25 18:10:00,69.0,35.5,30.14,NW,325,0.0,6.0,29,0.00,,---,0.00,VWS V13.01,2013-04-25 22:10:00,
2013-04-25 18:11:00,69.0,36.3,30.14,NW,325,0.0,6.0,30,0.00,,---,0.00,VWS V13.01,2013-04-25 22:11:00,
2013-04-25 18:12:00,69.0,36.3,30.14,NW,325,0.0,6.0,30,0.00,,---,0.00,VWS V13.01,2013-04-25 22:12:00,
2013-04-25 18:15:00,68.9,36.2,30.14,NW,325,0.0,6.0,30,0.00,,---,0.00,VWS V13.01,2013-04-25 22:15:00,
2013-04-25 18:16:00,68.9,35.4,30.14,NW,325,0.0,6.0,29,0.00,,---,0.00,VWS V13.01,2013-04-25 22:16:00,
2013-04-25 18:17:00,68.9,35.4,30.14,NW,325,0.0,6.0,29,0.00,,---,0.00,VWS V13.01,2013-04-25 22:17:00,
2013-04-25 18:20:00,68.8,36.1,30.14,NW,325,0.0,6.0,30,0.00,,---,0.00,VWS V13.01,2013-04-25 22:20:00,
2013-04-25 18:22:00,68.8,36.1,30.14,NW,325,0.0,6.0,30,0.00,,---,0.00,VWS V13.01,2013-04-25 22:22:00,
2013-04-25 18:25:00,68.6,36.0,30.14,NW,325,0.0,6.0,30,0.00,,---,0.00,VWS V13.01,2013-04-25 22:25:00,
2013-04-25 18:27:00,68.6,36.0,30.14,NW,325,0.0,6.0,30,0.00,,---,0.00,VWS V13.01,2013-04-25 22:27:00,
2013-04-25 18:28:00,68.6,36.0,30.14,NW,325,0.0,6.0,30,0.00,,---,0.00,VWS V13.01,2013-04-25 22:28:00,
2013-04-25 18:30:00,68.5,35.9,30.14,NW,325,0.0,6.0,30,0.00,,---,0.00,VWS V13.01,2013-04-25 22:30:00,
2013-04-25 18:32:00,68.5,36.7,30.14,NW,325,0.0,2.0,31,0.00,,---,0.00,VWS V13.01,2013-04-25 22:32:00,
2013-04-25 18:33:00,68.4,36.6,30.14,NW,325,0.0,2.0,31,0.00,,---,0.00,VWS V13.01,2013-04-25 22:33:00,
2013-04-25 18:35:00,68.3,34.8,30.14,NW,325,0.0,2.0,29,0.00,,---,0.00,VWS V13.01,2013-04-25 22:35:00,
2013-04-25 18:37:00,68.2,34.8,30.14,NW,325,0.0,2.0,29,0.00,,---,0.00,VWS V13.01,2013-04-25 22:37:00,
2013-04-25 18:38:00,68.2,34.8,30.14,NW,325,0.0,2.0,29,0.00,,---,0.00,VWS V13.01,2013-04-25 22:38:00,
2013-04-25 18:41:00,68.1,34.7,30.14,NW,325,0.0,2.0,29,0.00,,---,0.00,VWS V13.01,2013-04-25 22:41:00,
2013-04-25 18:42:00,68.1,34.7,30.14,NW,325,0.0,2.0,29,0.00,,---,0.00,VWS V13.01,2013-04-25 22:42:00,
2013-04-25 18:43:00,68.0,34.6,30.14,NW,325,0.0,2.0,29,0.00,,---,0.00,VWS V13.01,2013-04-25 22:43:00,
2013-04-25 18:46:00,67.9,37.0,30.14,NW,325,0.0,3.0,32,0.00,,---,0.00,VWS V13.01,2013-04-25 22:46:00,
2013-04-25 18:47:00,67.9,36.2,30.14,NW,325,0.0,3.0,31,0.00,,---,0.00,VWS V13.01,2013-04-25 22:47:00,
2013-04-25 18:48:00,67.9,36.2,30.14,NW,325,0.0,3.0,31,0.00,,---,0.00,VWS V13.01,2013-04-25 22:48:00,
2013-04-25 18:51:00,67.7,35.2,30.14,NW,325,0.0,3.0,30,0.00,,---,0.00,VWS V13.01,2013-04-25 22:51:00,
2013-04-25 18:52:00,67.7,35.2,30.14,NW,325,0.0,3.0,30,0.00,,---,0.00,VWS V13.01,2013-04-25 22:52:00,
2013-04-25 18:53:00,67.6,35.1,30.14,NW,325,0.0,3.0,30,0.00,,---,0.00,VWS V13.01,2013-04-25 22:53:00,
2013-04-25 18:56:00,67.5,35.8,30.14,NW,325,0.0,3.0,31,0.00,,---,0.00,VWS V13.01,2013-04-25 22:56:00,
2013-04-25 18:57:00,67.5,35.0,30.14,NW,325,0.0,3.0,30,0.00,,---,0.00,VWS V13.01,2013-04-25 22:57:00,
2013-04-25 18:58:00,67.5,35.0,30.14,NNW,331,3.0,3.0,30,0.00,,---,0.00,VWS V13.01,2013-04-25 22:58:00,
2013-04-25 18:59:00,67.4,37.3,30.14,NE,42,0.0,4.0,33,0.00,,---,0.00,VWS V13.01,2013-04-25 22:59:00,
2013-04-25 19:01:00,67.3,35.7,30.14,NE,43,0.0,0.0,31,0.00,,---,0.00,VWS V13.01,2013-04-25 23:01:00,
2013-04-25 19:02:00,67.2,36.4,30.14,NE,43,0.0,0.0,32,0.00,,---,0.00,VWS V13.01,2013-04-25 23:02:00,
2013-04-25 19:03:00,67.2,36.4,30.14,NE,42,0.0,0.0,32,0.00,,---,0.00,VWS V13.01,2013-04-25 23:03:00,
2013-04-25 19:04:00,67.2,36.4,30.14,NE,42,0.0,1.0,32,0.00,,---,0.00,VWS V13.01,2013-04-25 23:04:00,
2013-04-25 19:06:00,67.0,36.2,30.14,NE,42,0.0,1.0,32,0.00,,---,0.00,VWS V13.01,2013-04-25 23:06:00,
2013-04-25 19:08:00,67.0,37.0,30.14,NE,43,0.0,1.0,33,0.00,,---,0.00,VWS V13.01,2013-04-25 23:08:00,
2013-04-25 19:09:00,67.0,37.0,30.14,NE,41,0.0,3.0,33,0.00,,---,0.00,VWS V13.01,2013-04-25 23:09:00,
2013-04-25 19:11:00,66.8,36.8,30.14,NE,41,0.0,3.0,33,0.00,,---,0.00,VWS V13.01,2013-04-25 23:11:00,
2013-04-25 19:13:00,66.7,35.9,30.14,NE,41,0.0,3.0,32,0.00,,---,0.00,VWS V13.01,2013-04-25 23:13:00,
2013-04-25 19:14:00,66.7,35.9,30.14,NE,41,0.0,3.0,32,0.00,,---,0.00,VWS V13.01,2013-04-25 23:14:00,
2013-04-25 19:17:00,66.5,36.5,30.15,NE,41,0.0,3.0,33,0.00,,---,0.00,VWS V13.01,2013-04-25 23:17:00,
2013-04-25 19:18:00,66.5,36.5,30.15,NE,41,0.0,3.0,33,0.00,,---,0.00,VWS V13.01,2013-04-25 23:18:00,
2013-04-25 19:19:00,66.4,37.2,30.14,NE,41,0.0,3.0,34,0.00,,---,0.00,VWS V13.01,2013-04-25 23:19:00,
2013-04-25 19:22:00,66.3,37.1,30.15,NE,41,0.0,3.0,34,0.00,,---,0.00,VWS V13.01,2013-04-25 23:22:00,
2013-04-25 19:23:00,66.3,37.1,30.15,NE,41,0.0,3.0,34,0.00,,---,0.00,VWS V13.01,2013-04-25 23:23:00,
2013-04-25 19:24:00,66.2,37.0,30.15,NE,41,0.0,3.0,34,0.00,,---,0.00,VWS V13.01,2013-04-25 23:24:00,
2013-04-25 19:27:00,66.1,36.9,30.15,NE,41,0.0,3.0,34,0.00,,---,0.00,VWS V13.01,2013-04-25 23:27:00,
2013-04-25 19:28:00,66.1,36.9,30.15,NE,41,0.0,3.0,34,0.00,,---,0.00,VWS V13.01,2013-04-25 23:28:00,
2013-04-25 19:29:00,66.0,36.8,30.15,NE,41,0.0,3.0,34,0.00,,---,0.00,VWS V13.01,2013-04-25 23:29:00,
2013-04-25 19:32:00,65.8,36.7,30.15,NE,41,0.0,0.0,34,0.00,,---,0.00,VWS V13.01,2013-04-25 23:32:00,
2013-04-25 19:33:00,65.8,37.4,30.15,NE,41,0.0,0.0,35,0.00,,---,0.00,VWS V13.01,2013-04-25 23:33:00,
2013-04-25 19:34:00,65.8,36.7,30.15,NE,41,0.0,0.0,34,0.00,,---,0.00,VWS V13.01,2013-04-25 23:34:00,
2013-04-25 19:35:00,65.8,36.7,30.15,NE,41,0.0,0.0,34,0.00,,---,0.00,VWS V13.01,2013-04-25 23:35:00,
2013-04-25 19:38:00,65.6,37.2,30.15,NE,41,0.0,0.0,35,0.00,,---,0.00,VWS V13.01,2013-04-25 23:38:00,
2013-04-25 19:39:00,65.5,37.2,30.15,NE,41,0.0,0.0,35,0.00,,---,0.00,VWS V13.01,2013-04-25 23:39:00,
2013-04-25 19:40:00,65.4,37.1,30.15,NE,41,0.0,0.0,35,0.00,,---,0.00,VWS V13.01,2013-04-25 23:40:00,
2013-04-25 19:43:00,65.3,37.0,30.15,NE,41,0.0,0.0,35,0.00,,---,0.00,VWS V13.01,2013-04-25 23:43:00,
2013-04-25 19:44:00,65.2,36.9,30.15,NE,41,0.0,0.0,35,0.00,,---,0.00,VWS V13.01,2013-04-25 23:44:00,
2013-04-25 19:45:00,65.1,38.2,30.15,NE,41,0.0,0.0,37,0.00,,---,0.00,VWS V13.01,2013-04-25 23:45:00,
2013-04-25 19:48:00,64.9,38.0,30.15,NE,41,0.0,0.0,37,0.00,,---,0.00,VWS V13.01,2013-04-25 23:48:00,
2013-04-25 19:49:00,64.9,38.0,30.15,NE,41,0.0,0.0,37,0.00,,---,0.00,VWS V13.01,2013-04-25 23:49:00,
2013-04-25 19:50:00,64.8,37.9,30.15,NE,41,0.0,0.0,37,0.00,,---,0.00,VWS V13.01,2013-04-25 23:50:00,
2013-04-25 19:53:00,64.5,38.3,30.15,NE,41,0.0,0.0,38,0.00,,---,0.00,VWS V13.01,2013-04-25 23:53:00,
2013-04-25 19:54:00,64.5,38.3,30.15,NE,41,0.0,0.0,38,0.00,,---,0.00,VWS V13.01,2013-04-25 23:54:00,
2013-04-25 19:55:00,64.4,38.3,30.15,NE,41,0.0,0.0,38,0.00,,---,0.00,VWS V13.01,2013-04-25 23:55:00,
2013-04-25 19:58:00,64.0,39.2,30.15,NE,41,0.0,0.0,40,0.00,,---,0.00,VWS V13.01,2013-04-25 23:58:00,
2013-04-25 19:59:00,64.0,39.2,30.15,NE,41,0.0,0.0,40,0.00,,---,0.00,VWS V13.01,2013-04-25 23:59:00,
2013-04-25 20:01:00,63.8,39.0,30.15,NE,41,0.0,0.0,40,0.00,,---,0.00,VWS V13.01,2013-04-26 00:01:00,
2013-04-25 20:04:00,63.5,39.4,30.15,NE,41,0.0,0.0,41,0.00,,---,0.00,VWS V13.01,2013-04-26 00:04:00,
2013-04-25 20:05:00,63.4,38.7,30.15,NE,41,0.0,0.0,40,0.00,,---,0.00,VWS V13.01,2013-04-26 00:05:00,
2013-04-25 20:06:00,63.3,38.6,30.15,NE,41,0.0,0.0,40,0.00,,---,0.00,VWS V13.01,2013-04-26 00:06:00,
2013-04-25 20:09:00,62.9,38.9,30.16,NE,41,0.0,0.0,41,0.00,,---,0.00,VWS V13.01,2013-04-26 00:09:00,
2013-04-25 20:10:00,62.9,38.9,30.16,NE,41,0.0,0.0,41,0.00,,---,0.00,VWS V13.01,2013-04-26 00:10:00,
2013-04-25 20:11:00,62.7,39.3,30.16,NE,41,0.0,0.0,42,0.00,,---,0.00,VWS V13.01,2013-04-26 00:11:00,
2013-04-25 20:14:00,62.4,39.6,30.16,NE,41,0.0,0.0,43,0.00,,---,0.00,VWS V13.01,2013-04-26 00:14:00,
2013-04-25 20:15:00,62.3,40.1,30.16,NE,41,0.0,0.0,44,0.00,,---,0.00,VWS V13.01,2013-04-26 00:15:00,
2013-04-25 20:16:00,62.2,40.0,30.16,NE,41,0.0,0.0,44,0.00,,---,0.00,VWS V13.01,2013-04-26 00:16:00,
2013-04-25 20:19:00,61.9,40.3,30.16,NE,41,0.0,0.0,45,0.00,,---,0.00,VWS V13.01,2013-04-26 00:19:00,
2013-04-25 20:20:00,61.9,40.3,30.16,NE,41,0.0,0.0,45,0.00,,---,0.00,VWS V13.01,2013-04-26 00:20:00,
2013-04-25 20:21:00,61.8,40.3,30.16,NE,41,0.0,0.0,45,0.00,,---,0.00,VWS V13.01,2013-04-26 00:21:00,
2013-04-25 20:24:00,61.5,40.5,30.16,NE,41,0.0,0.0,46,0.00,,---,0.00,VWS V13.01,2013-04-26 00:24:00,
2013-04-25 20:25:00,61.5,40.5,30.16,NE,41,0.0,0.0,46,0.00,,---,0.00,VWS V13.01,2013-04-26 00:25:00,
2013-04-25 20:26:00,61.4,40.5,30.16,NE,41,0.0,0.0,46,0.00,,---,0.00,VWS V13.01,2013-04-26 00:26:00,
2013-04-25 20:27:00,61.3,40.4,30.16,NE,41,0.0,0.0,46,0.00,,---,0.00,VWS V13.01,2013-04-26 00:27:00,
2013-04-25 20:30:00,61.0,40.7,30.17,NE,41,0.0,0.0,47,0.00,,---,0.00,VWS V13.01,2013-04-26 00:30:00,
2013-04-25 20:31:00,60.9,40.0,30.17,NE,41,0.0,0.0,46,0.00,,---,0.00,VWS V13.01,2013-04-26 00:31:00,
2013-04-25 20:32:00,60.8,39.9,30.16,NE,41,0.0,0.0,46,0.00,,---,0.00,VWS V13.01,2013-04-26 00:32:00,
2013-04-25 20:35:00,60.6,40.3,30.17,NE,41,0.0,0.0,47,0.00,,---,0.00,VWS V13.01,2013-04-26 00:35:00,
2013-04-25 20:36:00,60.4,40.1,30.17,NE,41,0.0,0.0,47,0.00,,---,0.00,VWS V13.01,2013-04-26 00:36:00,
2013-04-25 20:37:00,60.4,40.1,30.17,NE,41,0.0,0.0,47,0.00,,---,0.00,VWS V13.01,2013-04-26 00:37:00,
2013-04-25 20:40:00,60.2,40.5,30.17,NE,41,0.0,0.0,48,0.00,,---,0.00,VWS V13.01,2013-04-26 00:40:00,
2013-04-25 20:41:00,60.0,40.3,30.17,NE,41,0.0,0.0,48,0.00,,---,0.00,VWS V13.01,2013-04-26 00:41:00,
2013-04-25 20:42:00,60.0,40.3,30.17,NE,41,0.0,0.0,48,0.00,,---,0.00,VWS V13.01,2013-04-26 00:42:00,
2013-04-25 20:45:00,59.7,40.5,30.17,NE,41,0.0,0.0,49,0.00,,---,0.00,VWS V13.01,2013-04-26 00:45:00,
2013-04-25 20:46:00,59.6,40.4,30.17,NE,41,0.0,0.0,49,0.00,,---,0.00,VWS V13.01,2013-04-26 00:46:00,
2013-04-25 20:47:00,59.6,41.0,30.17,NE,41,0.0,0.0,50,0.00,,---,0.00,VWS V13.01,2013-04-26 00:47:00,
2013-04-25 20:50:00,59.2,41.1,30.17,NE,41,0.0,0.0,51,0.00,,---,0.00,VWS V13.01,2013-04-26 00:50:00,
2013-04-25 20:51:00,59.1,41.0,30.17,NE,41,0.0,0.0,51,0.00,,---,0.00,VWS V13.01,2013-04-26 00:51:00,
2013-04-25 20:52:00,59.0,40.9,30.17,NE,41,0.0,0.0,51,0.00,,---,0.00,VWS V13.01,2013-04-26 00:52:00,
2013-04-25 20:55:00,59.0,41.4,30.18,NE,41,0.0,0.0,52,0.00,,---,0.00,VWS V13.01,2013-04-26 00:55:00,
2013-04-25 20:56:00,59.0,41.4,30.18,NE,41,0.0,0.0,52,0.00,,---,0.00,VWS V13.01,2013-04-26 00:56:00,
2013-04-25 20:57:00,59.0,41.9,30.18,NE,41,0.0,0.0,53,0.00,,---,0.00,VWS V13.01,2013-04-26 00:57:00,
2013-04-25 20:58:00,58.9,41.8,30.18,NE,41,0.0,0.0,53,0.00,,---,0.00,VWS V13.01,2013-04-26 00:58:00,
2013-04-25 21:00:00,58.6,41.5,30.18,NE,41,0.0,0.0,53,0.00,,---,0.00,VWS V13.01,2013-04-26 01:00:00,
2013-04-25 21:01:00,58.5,41.5,30.18,NE,41,0.0,0.0,53,0.00,,---,0.00,VWS V13.01,2013-04-26 01:01:00,
2013-04-25 21:02:00,58.5,41.5,30.18,NE,41,0.0,0.0,53,0.00,,---,0.00,VWS V13.01,2013-04-26 01:02:00,
2013-04-25 21:03:00,58.3,41.3,30.18,NE,41,0.0,0.0,53,0.00,,---,0.00,VWS V13.01,2013-04-26 01:03:00,
2013-04-25 21:05:00,58.1,41.6,30.19,NE,41,0.0,0.0,54,0.00,,---,0.00,VWS V13.01,2013-04-26 01:05:00,
2013-04-25 21:06:00,58.0,41.5,30.19,NE,41,0.0,0.0,54,0.00,,---,0.00,VWS V13.01,2013-04-26 01:06:00,
2013-04-25 21:07:00,58.0,41.5,30.19,NE,41,0.0,0.0,54,0.00,,---,0.00,VWS V13.01,2013-04-26 01:07:00,
2013-04-25 21:08:00,57.9,41.4,30.19,NE,41,0.0,0.0,54,0.00,,---,0.00,VWS V13.01,2013-04-26 01:08:00,
2013-04-25 21:10:00,57.7,41.2,30.19,NE,41,0.0,0.0,54,0.00,,---,0.00,VWS V13.01,2013-04-26 01:10:00,
2013-04-25 21:11:00,57.6,41.1,30.19,NE,41,0.0,0.0,54,0.00,,---,0.00,VWS V13.01,2013-04-26 01:11:00,
2013-04-25 21:12:00,57.6,41.1,30.19,NE,41,0.0,0.0,54,0.00,,---,0.00,VWS V13.01,2013-04-26 01:12:00,
2013-04-25 21:13:00,57.5,41.5,30.19,NE,41,0.0,0.0,55,0.00,,---,0.00,VWS V13.01,2013-04-26 01:13:00,
2013-04-25 21:16:00,57.2,41.2,30.19,NE,41,0.0,0.0,55,0.00,,---,0.00,VWS V13.01,2013-04-26 01:16:00,
2013-04-25 21:17:00,57.2,41.2,30.19,NE,41,0.0,0.0,55,0.00,,---,0.00,VWS V13.01,2013-04-26 01:17:00,
2013-04-25 21:18:00,57.1,41.1,30.19,NE,41,0.0,0.0,55,0.00,,---,0.00,VWS V13.01,2013-04-26 01:18:00,
2013-04-25 21:19:00,57.1,41.1,30.19,NE,41,0.0,0.0,55,0.00,,---,0.00,VWS V13.01,2013-04-26 01:19:00,
2013-04-25 21:21:00,56.8,41.3,30.19,NE,41,0.0,0.0,56,0.00,,---,0.00,VWS V13.01,2013-04-26 01:21:00,
2013-04-25 21:22:00,56.8,41.3,30.19,NE,41,0.0,0.0,56,0.00,,---,0.00,VWS V13.01,2013-04-26 01:22:00,
2013-04-25 21:23:00,56.7,41.2,30.19,NE,41,0.0,0.0,56,0.00,,---,0.00,VWS V13.01,2013-04-26 01:23:00,
2013-04-25 21:24:00,56.6,41.1,30.19,NE,41,0.0,0.0,56,0.00,,---,0.00,VWS V13.01,2013-04-26 01:24:00,
2013-04-25 21:27:00,56.4,40.9,30.20,NE,41,0.0,0.0,56,0.00,,---,0.00,VWS V13.01,2013-04-26 01:27:00,
2013-04-25 21:28:00,56.4,41.4,30.19,NE,41,0.0,0.0,57,0.00,,---,0.00,VWS V13.01,2013-04-26 01:28:00,
2013-04-25 21:29:00,56.3,41.3,30.19,NE,41,0.0,0.0,57,0.00,,---,0.00,VWS V13.01,2013-04-26 01:29:00,
2013-04-25 21:32:00,56.1,41.5,30.20,NE,41,0.0,0.0,58,0.00,,---,0.00,VWS V13.01,2013-04-26 01:32:00,
2013-04-25 21:33:00,56.0,41.5,30.20,NE,41,0.0,0.0,58,0.00,,---,0.00,VWS V13.01,2013-04-26 01:33:00,
2013-04-25 21:34:00,56.0,41.5,30.20,NE,41,0.0,0.0,58,0.00,,---,0.00,VWS V13.01,2013-04-26 01:34:00,
2013-04-25 21:37:00,55.8,41.3,30.20,NE,41,0.0,0.0,58,0.00,,---,0.00,VWS V13.01,2013-04-26 01:37:00,
2013-04-25 21:38:00,55.7,41.6,30.20,NE,41,0.0,0.0,59,0.00,,---,0.00,VWS V13.01,2013-04-26 01:38:00,
2013-04-25 21:39:00,55.6,41.5,30.20,NE,41,0.0,0.0,59,0.00,,---,0.00,VWS V13.01,2013-04-26 01:39:00,
2013-04-25 21:42:00,55.5,41.4,30.20,NE,41,0.0,0.0,59,0.00,,---,0.00,VWS V13.01,2013-04-26 01:42:00,
2013-04-25 21:43:00,55.4,41.8,30.20,NE,41,0.0,0.0,60,0.00,,---,0.00,VWS V13.01,2013-04-26 01:43:00,
2013-04-25 21:44:00,55.3,41.2,30.20,NE,41,0.0,0.0,59,0.00,,---,0.00,VWS V13.01,2013-04-26 01:44:00,
2013-04-25 21:47:00,55.2,41.6,30.20,NE,41,0.0,0.0,60,0.00,,---,0.00,VWS V13.01,2013-04-26 01:47:00,
2013-04-25 21:48:00,55.1,41.5,30.20,NE,41,0.0,0.0,60,0.00,,---,0.00,VWS V13.01,2013-04-26 01:48:00,
2013-04-25 21:49:00,55.1,41.5,30.20,NE,41,0.0,0.0,60,0.00,,---,0.00,VWS V13.01,2013-04-26 01:49:00,
2013-04-25 21:53:00,54.9,41.7,30.20,NE,41,0.0,0.0,61,0.00,,---,0.00,VWS V13.01,2013-04-26 01:53:00,
2013-04-25 21:54:00,54.8,41.6,30.21,NE,41,0.0,0.0,61,0.00,,---,0.00,VWS V13.01,2013-04-26 01:54:00,
2013-04-25 21:58:00,54.6,41.9,30.21,NE,41,0.0,0.0,62,0.00,,---,0.00,VWS V13.01,2013-04-26 01:58:00,
2013-04-25 21:59:00,54.5,41.8,30.21,NE,41,0.0,0.0,62,0.00,,---,0.00,VWS V13.01,2013-04-26 01:59:00,
2013-04-25 22:03:00,54.4,41.7,30.21,NE,41,0.0,0.0,62,0.00,,---,0.00,VWS V13.01,2013-04-26 02:03:00,
2013-04-25 22:04:00,54.3,42.0,30.21,NE,41,0.0,0.0,63,0.00,,---,0.00,VWS V13.01,2013-04-26 02:04:00,
2013-04-25 22:05:00,54.3,42.0,30.21,NE,41,0.0,0.0,63,0.00,,---,0.00,VWS V13.01,2013-04-26 02:05:00,
2013-04-25 22:08:00,54.2,42.3,30.21,NE,41,0.0,0.0,64,0.00,,---,0.00,VWS V13.01,2013-04-26 02:08:00,
2013-04-25 22:09:00,54.1,42.2,30.22,NE,41,0.0,0.0,64,0.00,,---,0.00,VWS V13.01,2013-04-26 02:09:00,
2013-04-25 22:10:00,54.1,41.8,30.22,NE,41,0.0,0.0,63,0.00,,---,0.00,VWS V13.01,2013-04-26 02:10:00,
2013-04-25 22:13:00,53.9,42.0,30.22,NE,41,0.0,0.0,64,0.00,,---,0.00,VWS V13.01,2013-04-26 02:13:00,
2013-04-25 22:14:00,53.9,42.0,30.22,NE,41,0.0,0.0,64,0.00,,---,0.00,VWS V13.01,2013-04-26 02:14:00,
2013-04-25 22:15:00,53.8,42.3,30.22,NE,41,0.0,0.0,65,0.00,,---,0.00,VWS V13.01,2013-04-26 02:15:00,
2013-04-25 22:18:00,53.7,42.2,30.22,NE,41,0.0,0.0,65,0.00,,---,0.00,VWS V13.01,2013-04-26 02:18:00,
2013-04-25 22:19:00,53.6,42.1,30.22,NE,41,0.0,0.0,65,0.00,,---,0.00,VWS V13.01,2013-04-26 02:19:00,
2013-04-25 22:21:00,53.6,42.1,30.22,NE,41,0.0,0.0,65,0.00,,---,0.00,VWS V13.01,2013-04-26 02:21:00,
2013-04-25 22:23:00,53.5,42.4,30.22,NE,41,0.0,0.0,66,0.00,,---,0.00,VWS V13.01,2013-04-26 02:23:00,
2013-04-25 22:24:00,53.4,42.3,30.22,NE,41,0.0,0.0,66,0.00,,---,0.00,VWS V13.01,2013-04-26 02:24:00,
2013-04-25 22:26:00,53.3,42.2,30.22,NE,41,0.0,0.0,66,0.00,,---,0.00,VWS V13.01,2013-04-26 02:26:00,
2013-04-25 22:28:00,53.2,42.5,30.22,NE,41,0.0,0.0,67,0.00,,---,0.00,VWS V13.01,2013-04-26 02:28:00,
2013-04-25 22:29:00,53.2,42.5,30.22,NE,41,0.0,0.0,67,0.00,,---,0.00,VWS V13.01,2013-04-26 02:29:00,
2013-04-25 22:31:00,53.1,42.5,30.22,NE,41,1.0,1.0,67,0.00,,---,0.00,VWS V13.01,2013-04-26 02:31:00,
2013-04-25 22:33:00,53.0,42.7,30.22,NE,41,0.0,1.0,68,0.00,,---,0.00,VWS V13.01,2013-04-26 02:33:00,
2013-04-25 22:34:00,53.0,42.7,30.22,NE,41,0.0,1.0,68,0.00,,---,0.00,VWS V13.01,2013-04-26 02:34:00,
2013-04-25 22:36:00,52.9,42.6,30.22,NE,41,0.0,2.0,68,0.00,,---,0.00,VWS V13.01,2013-04-26 02:36:00,
2013-04-25 22:38:00,52.8,42.9,30.22,NE,41,0.0,2.0,69,0.00,,---,0.00,VWS V13.01,2013-04-26 02:38:00,
2013-04-25 22:39:00,52.8,42.9,30.22,NE,41,0.0,2.0,69,0.00,,---,0.00,VWS V13.01,2013-04-26 02:39:00,
2013-04-25 22:40:00,52.7,42.8,30.22,NE,41,0.0,2.0,69,0.00,,---,0.00,VWS V13.01,2013-04-26 02:40:00,
2013-04-25 22:41:00,52.7,43.2,30.23,NE,41,1.0,2.0,70,0.00,,---,0.00,VWS V13.01,2013-04-26 02:41:00,
2013-04-25 22:43:00,52.6,43.1,30.23,NE,38,0.0,4.0,70,0.00,,---,0.00,VWS V13.01,2013-04-26 02:43:00,
2013-04-25 22:44:00,52.5,43.0,30.23,NE,37,0.0,4.0,70,0.00,,---,0.00,VWS V13.01,2013-04-26 02:44:00,
2013-04-25 22:45:00,52.5,43.0,30.23,NE,38,2.0,4.0,70,0.00,,---,0.00,VWS V13.01,2013-04-26 02:45:00,
2013-04-25 22:46:00,52.4,42.9,30.23,NE,38,0.0,4.0,70,0.00,,---,0.00,VWS V13.01,2013-04-26 02:46:00,
2013-04-25 22:48:00,52.4,42.9,30.23,NNE,29,3.0,4.0,70,0.00,,---,0.00,VWS V13.01,2013-04-26 02:48:00,
2013-04-25 22:49:00,52.3,42.8,30.23,NNE,25,1.0,4.0,70,0.00,,---,0.00,VWS V13.01,2013-04-26 02:49:00,
2013-04-25 22:50:00,52.3,42.8,30.23,North,5,1.0,4.0,70,0.00,,---,0.00,VWS V13.01,2013-04-26 02:50:00,
2013-04-25 22:51:00,52.3,42.8,30.23,North,5,0.0,4.0,70,0.00,,---,0.00,VWS V13.01,2013-04-26 02:51:00,
2013-04-25 22:54:00,52.2,42.3,30.23,North,360,0.0,4.0,69,0.00,,---,0.00,VWS V13.01,2013-04-26 02:54:00,
2013-04-25 22:55:00,52.1,42.2,30.23,North,360,0.0,4.0,69,0.00,,---,0.00,VWS V13.01,2013-04-26 02:55:00,
2013-04-25 22:57:00,52.1,42.2,30.23,North,5,0.0,4.0,69,0.00,,---,0.00,VWS V13.01,2013-04-26 02:57:00,
2013-04-25 22:59:00,52.0,42.2,30.23,North,5,0.0,4.0,69,0.00,,---,0.00,VWS V13.01,2013-04-26 02:59:00,
2013-04-25 23:00:00,52.0,42.2,30.23,North,5,0.0,4.0,69,0.00,,---,0.00,VWS V13.01,2013-04-26 03:00:00,
2013-04-25 23:02:00,51.9,42.1,30.23,North,5,0.0,0.0,69,0.00,,---,0.00,VWS V13.01,2013-04-26 03:02:00,
2013-04-25 23:04:00,51.8,42.0,30.23,North,360,0.0,0.0,69,0.00,,---,0.00,VWS V13.01,2013-04-26 03:04:00,
2013-04-25 23:05:00,51.8,42.0,30.23,North,5,0.0,0.0,69,0.00,,---,0.00,VWS V13.01,2013-04-26 03:05:00,
2013-04-25 23:07:00,51.8,42.0,30.23,North,5,0.0,0.0,69,0.00,,---,0.00,VWS V13.01,2013-04-26 03:07:00,
2013-04-25 23:09:00,51.7,41.9,30.23,North,5,0.0,0.0,69,0.00,,---,0.00,VWS V13.01,2013-04-26 03:09:00,
2013-04-25 23:10:00,51.7,41.9,30.23,North,360,0.0,0.0,69,0.00,,---,0.00,VWS V13.01,2013-04-26 03:10:00,
2013-04-25 23:11:00,51.7,41.9,30.23,North,5,0.0,0.0,69,0.00,,---,0.00,VWS V13.01,2013-04-26 03:11:00,
2013-04-25 23:12:00,51.6,41.8,30.23,North,5,0.0,0.0,69,0.00,,---,0.00,VWS V13.01,2013-04-26 03:12:00,
2013-04-25 23:15:00,51.5,42.0,30.23,North,360,0.0,0.0,70,0.00,,---,0.00,VWS V13.01,2013-04-26 03:15:00,
2013-04-25 23:16:00,51.5,42.0,30.23,North,5,0.0,0.0,70,0.00,,---,0.00,VWS V13.01,2013-04-26 03:16:00,
2013-04-25 23:17:00,51.5,42.0,30.23,North,5,0.0,0.0,70,0.00,,---,0.00,VWS V13.01,2013-04-26 03:17:00,
2013-04-25 23:20:00,51.4,42.3,30.23,North,5,0.0,0.0,71,0.00,,---,0.00,VWS V13.01,2013-04-26 03:20:00,
2013-04-25 23:21:00,51.4,42.3,30.23,North,360,0.0,0.0,71,0.00,,---,0.00,VWS V13.01,2013-04-26 03:21:00,
2013-04-25 23:23:00,51.2,42.1,30.23,North,5,0.0,0.0,71,0.00,,---,0.00,VWS V13.01,2013-04-26 03:23:00,
2013-04-25 23:25:00,51.2,42.1,30.23,North,5,0.0,0.0,71,0.00,,---,0.00,VWS V13.01,2013-04-26 03:25:00,
2013-04-25 23:26:00,51.2,42.1,30.23,North,5,0.0,0.0,71,0.00,,---,0.00,VWS V13.01,2013-04-26 03:26:00,
2013-04-25 23:29:00,51.1,42.4,30.23,North,5,0.0,0.0,72,0.00,,---,0.00,VWS V13.01,2013-04-26 03:29:00,
2013-04-25 23:30:00,51.0,42.3,30.23,North,5,0.0,0.0,72,0.00,,---,0.00,VWS V13.01,2013-04-26 03:30:00,
2013-04-25 23:31:00,51.0,42.3,30.23,North,5,0.0,0.0,72,0.00,,---,0.00,VWS V13.01,2013-04-26 03:31:00,
2013-04-25 23:34:00,50.9,42.2,30.23,North,5,0.0,0.0,72,0.00,,---,0.00,VWS V13.01,2013-04-26 03:34:00,
2013-04-25 23:35:00,50.8,42.1,30.23,North,5,0.0,0.0,72,0.00,,---,0.00,VWS V13.01,2013-04-26 03:35:00,
2013-04-25 23:36:00,50.8,42.1,30.23,North,5,0.0,0.0,72,0.00,,---,0.00,VWS V13.01,2013-04-26 03:36:00,
2013-04-25 23:39:00,50.7,42.0,30.23,North,360,0.0,0.0,72,0.00,,---,0.00,VWS V13.01,2013-04-26 03:39:00,
2013-04-25 23:40:00,50.7,42.0,30.23,North,5,0.0,0.0,72,0.00,,---,0.00,VWS V13.01,2013-04-26 03:40:00,
2013-04-25 23:41:00,50.6,41.9,30.23,North,360,0.0,0.0,72,0.00,,---,0.00,VWS V13.01,2013-04-26 03:41:00,
2013-04-25 23:42:00,50.6,41.9,30.23,North,5,0.0,0.0,72,0.00,,---,0.00,VWS V13.01,2013-04-26 03:42:00,
2013-04-25 23:44:00,50.5,41.8,30.23,North,5,0.0,0.0,72,0.00,,---,0.00,VWS V13.01,2013-04-26 03:44:00,
2013-04-25 23:45:00,50.4,41.7,30.23,North,5,0.0,0.0,72,0.00,,---,0.00,VWS V13.01,2013-04-26 03:45:00,
2013-04-25 23:46:00,50.4,41.7,30.23,North,5,0.0,0.0,72,0.00,,---,0.00,VWS V13.01,2013-04-26 03:46:00,
2013-04-25 23:47:00,50.4,41.7,30.23,North,5,0.0,0.0,72,0.00,,---,0.00,VWS V13.01,2013-04-26 03:47:00,
2013-04-25 23:49:00,50.3,41.6,30.23,North,360,0.0,0.0,72,0.00,,---,0.00,VWS V13.01,2013-04-26 03:49:00,
2013-04-25 23:50:00,50.2,41.9,30.23,North,360,0.0,0.0,73,0.00,,---,0.00,VWS V13.01,2013-04-26 03:50:00,
2013-04-25 23:51:00,50.1,41.8,30.23,North,5,0.0,0.0,73,0.00,,---,0.00,VWS V13.01,2013-04-26 03:51:00,
2013-04-25 23:52:00,50.1,41.8,30.23,North,360,0.0,0.0,73,0.00,,---,0.00,VWS V13.01,2013-04-26 03:52:00,
2013-04-25 23:54:00,50.0,41.7,30.23,North,360,0.0,0.0,73,0.00,,---,0.00,VWS V13.01,2013-04-26 03:54:00,
2013-04-25 23:55:00,50.0,41.7,30.23,North,360,0.0,0.0,73,0.00,,---,0.00,VWS V13.01,2013-04-26 03:55:00,
2013-04-25 23:56:00,49.9,41.6,30.23,North,5,0.0,0.0,73,0.00,,---,0.00,VWS V13.01,2013-04-26 03:56:00,
2013-04-25 23:57:00,49.9,42.0,30.23,North,5,0.0,0.0,74,0.00,,---,0.00,VWS V13.01,2013-04-26 03:57:00,
2013-04-25 23:59:00,49.8,41.9,30.23,North,360,0.0,0.0,74,0.00,,---,0.00,VWS V13.01,2013-04-26 03:59:00,